GW2849 Weather Reports


Display with metric or nautical units.
time (UTC)temp
F
wind
direction
speed
MPH
gust
MPH
rain 1hr
in
rain 24hr
in
rain mn
in
humidity
%
barometer
mb
20260508135701 60 225 2.0 10.0 0.00 0.00 0.00 52 1014.8
20260508135500 59 166 6.0 8.0 0.00 0.00 0.00 54 1014.7
20260508135359 59 150 1.0 8.0 0.00 0.00 0.00 55 1014.6
20260508135259 59 139 3.0 8.0 0.00 0.00 0.00 55 1014.7
20260508135201 59 161 1.0 8.0 0.00 0.00 0.00 55 1014.7
20260508135100 59 118 0.0 8.0 0.00 0.00 0.00 54 1014.7
20260508134959 59 196 3.0 8.0 0.00 0.00 0.00 54 1014.7
20260508134759 59 171 2.0 8.0 0.00 0.00 0.00 55 1014.8
20260508134700 59 23 0.0 8.0 0.00 0.00 0.00 54 1014.8
20260508134559 58 273 2.0 8.0 0.00 0.00 0.00 56 1014.8
20260508134500 58 165 0.0 8.0 0.00 0.00 0.00 55 1014.7
20260508134400 58 115 1.0 8.0 0.00 0.00 0.00 56 1014.7
20260508134300 58 188 0.0 8.0 0.00 0.00 0.00 54 1014.7
20260508134159 58 207 0.0 8.0 0.00 0.00 0.00 54 1014.7
20260508134059 58 198 3.0 8.0 0.00 0.00 0.00 54 1014.7
20260508134000 58 288 2.0 8.0 0.00 0.00 0.00 54 1014.7
20260508133859 58 168 2.0 8.0 0.00 0.00 0.00 56 1014.7
20260508133759 58 181 0.0 8.0 0.00 0.00 0.00 56 1014.7
20260508133659 57 185 2.0 8.0 0.00 0.00 0.00 56 1014.7
20260508133602 57 173 0.0 8.0 0.00 0.00 0.00 55 1014.7
20260508133459 57 162 4.0 8.0 0.00 0.00 0.00 55 1014.7
20260508133401 57 206 0.0 8.0 0.00 0.00 0.00 55 1014.7
20260508133259 57 32 3.0 8.0 0.00 0.00 0.00 55 1014.7
20260508133200 57 311 2.0 6.0 0.00 0.00 0.00 54 1014.7
20260508133059 57 177 4.0 6.0 0.00 0.00 0.00 55 1014.7
20260508133001 57 37 1.0 6.0 0.00 0.00 0.00 55 1014.7
20260508132859 57 350 3.0 6.0 0.00 0.00 0.00 55 1014.8
20260508132800 57 205 1.0 6.0 0.00 0.00 0.00 54 1014.7
20260508132659 57 105 1.0 7.0 0.00 0.00 0.00 54 1014.7
20260508132559 57 303 5.0 7.0 0.00 0.00 0.00 55 1014.8
20260508132458 57 133 2.0 7.0 0.00 0.00 0.00 54 1014.8
20260508132400 56 314 1.0 7.0 0.00 0.00 0.00 54 1014.8
20260508132301 56 319 3.0 7.0 0.00 0.00 0.00 55 1014.8
20260508132159 56 250 5.0 7.0 0.00 0.00 0.00 56 1014.8
20260508132101 56 302 3.0 7.0 0.00 0.00 0.00 55 1014.7
20260508132000 56 275 2.0 6.0 0.00 0.00 0.00 56 1014.8
20260508131759 56 187 2.0 6.0 0.00 0.00 0.00 55 1014.8
20260508131700 56 190 3.0 6.0 0.00 0.00 0.00 55 1014.8
20260508131559 56 171 2.0 8.0 0.00 0.00 0.00 55 1014.8
20260508131500 56 192 4.0 8.0 0.00 0.00 0.00 55 1014.8
20260508131359 56 310 1.0 8.0 0.00 0.00 0.00 55 1014.8
20260508131300 56 201 2.0 8.0 0.00 0.00 0.00 56 1014.8
20260508131200 56 173 2.0 8.0 0.00 0.00 0.00 57 1014.8
20260508131100 56 305 0.0 8.0 0.00 0.00 0.00 56 1014.7
20260508131000 55 155 1.0 8.0 0.00 0.00 0.00 56 1014.7
20260508130859 55 205 3.0 8.0 0.00 0.00 0.00 57 1014.8
20260508130759 55 215 8.0 8.0 0.00 0.00 0.00 57 1014.7
20260508130500 55 256 1.0 6.0 0.00 0.00 0.00 58 1014.8
20260508130400 55 206 1.0 6.0 0.00 0.00 0.00 56 1014.7
20260508130301 55 207 2.0 6.0 0.00 0.00 0.00 57 1014.7
20260508130159 55 281 2.0 6.0 0.00 0.00 0.00 57 1014.8
20260508125959 55 166 1.0 8.0 0.00 0.00 0.00 57 1014.7
20260508125900 54 202 1.0 8.0 0.00 0.00 0.00 58 1014.7
20260508125759 54 192 2.0 8.0 0.00 0.00 0.00 57 1014.7
20260508125700 54 165 1.0 8.0 0.00 0.00 0.00 57 1014.8
20260508125559 54 279 4.0 8.0 0.00 0.00 0.00 57 1014.7
20260508125501 54 325 1.0 8.0 0.00 0.00 0.00 57 1014.8
20260508125359 54 207 4.0 8.0 0.00 0.00 0.00 56 1014.7
20260508125259 54 207 3.0 8.0 0.00 0.00 0.00 56 1014.8
20260508125200 54 177 6.0 8.0 0.00 0.00 0.00 57 1014.7
20260508125100 54 271 7.0 8.0 0.00 0.00 0.00 57 1014.7
20260508125000 54 265 1.0 5.0 0.00 0.00 0.00 58 1014.6
20260508124859 54 271 2.0 5.0 0.00 0.00 0.00 58 1014.7
20260508124801 54 220 2.0 5.0 0.00 0.00 0.00 59 1014.7
20260508124659 54 298 0.0 5.0 0.00 0.00 0.00 59 1014.6
20260508124459 54 173 1.0 5.0 0.00 0.00 0.00 58 1014.6
20260508124400 54 182 0.0 5.0 0.00 0.00 0.00 58 1014.7
20260508124259 53 186 2.0 5.0 0.00 0.00 0.00 59 1014.6
20260508124200 53 181 0.0 5.0 0.00 0.00 0.00 59 1014.6
20260508124059 53 113 2.0 5.0 0.00 0.00 0.00 58 1014.6
20260508124000 53 213 1.0 5.0 0.00 0.00 0.00 58 1014.7
20260508123900 53 313 1.0 8.0 0.00 0.00 0.00 59 1014.6
20260508123759 53 206 3.0 8.0 0.00 0.00 0.00 58 1014.6
20260508123659 53 236 4.0 8.0 0.00 0.00 0.00 59 1014.5
20260508123600 53 192 0.0 8.0 0.00 0.00 0.00 58 1014.6
20260508123500 53 196 1.0 8.0 0.00 0.00 0.00 59 1014.6
20260508123359 53 220 1.0 8.0 0.00 0.00 0.00 59 1014.6
20260508123259 53 95 1.0 8.0 0.00 0.00 0.00 59 1014.6
20260508123159 53 174 3.0 8.0 0.00 0.00 0.00 59 1014.6
20260508123059 53 200 1.0 8.0 0.00 0.00 0.00 59 1014.6
20260508123003 52 208 4.0 8.0 0.00 0.00 0.00 59 1014.6
20260508122659 52 329 1.0 6.0 0.00 0.00 0.00 59 1014.5
20260508122559 52 205 3.0 6.0 0.00 0.00 0.00 60 1014.5
20260508122501 52 272 0.0 8.0 0.00 0.00 0.00 60 1014.5
20260508122359 52 290 2.0 8.0 0.00 0.00 0.00 59 1014.4
20260508122259 52 182 6.0 8.0 0.00 0.00 0.00 59 1014.5
20260508122200 52 196 2.0 8.0 0.00 0.00 0.00 60 1014.4
20260508122101 52 180 2.0 8.0 0.00 0.00 0.00 60 1014.5
20260508122000 52 183 0.0 8.0 0.00 0.00 0.00 60 1014.5
20260508121901 52 149 3.0 8.0 0.00 0.00 0.00 60 1014.5
20260508121801 51 175 3.0 8.0 0.00 0.00 0.00 61 1014.5
20260508121701 51 205 1.0 8.0 0.00 0.00 0.00 60 1014.5
20260508121601 51 188 6.0 8.0 0.00 0.00 0.00 60 1014.5
20260508121300 51 294 5.0 10.0 0.00 0.00 0.00 61 1014.5
20260508121159 51 182 2.0 10.0 0.00 0.00 0.00 61 1014.5
20260508121059 51 159 4.0 10.0 0.00 0.00 0.00 61 1014.4
20260508121001 51 210 4.0 10.0 0.00 0.00 0.00 61 1014.5
20260508120900 51 230 1.0 10.0 0.00 0.00 0.00 61 1014.4
20260508120700 51 148 3.0 10.0 0.00 0.00 0.00 62 1014.5
20260508120600 51 174 2.0 11.0 0.00 0.00 0.00 62 1014.6
20260508120458 51 206 2.0 11.0 0.00 0.00 0.00 62 1014.5
20260508120401 51 189 2.0 11.0 0.00 0.00 0.00 62 1014.5
20260508120259 50 240 0.0 11.0 0.00 0.00 0.00 62 1014.5
20260508120158 50 197 1.0 11.0 0.00 0.00 0.00 63 1014.5
20260508120058 50 250 2.0 11.0 0.00 0.00 0.00 63 1014.5
20260508120002 50 203 1.0 11.0 0.00 0.00 0.00 63 1014.5
20260508115701 50 197 1.0 5.0 0.00 0.00 0.00 63 1014.6
20260508115600 50 200 1.0 5.0 0.00 0.00 0.00 64 1014.5
20260508115459 50 281 0.0 5.0 0.00 0.00 0.00 63 1014.4
20260508115359 50 167 1.0 5.0 0.00 0.00 0.00 63 1014.4
20260508115259 50 163 2.0 5.0 0.00 0.00 0.00 64 1014.4
20260508115200 50 203 2.0 6.0 0.00 0.00 0.00 64 1014.4
20260508115059 49 206 1.0 6.0 0.00 0.00 0.00 64 1014.3
20260508115000 49 276 0.0 6.0 0.00 0.00 0.00 64 1014.4
20260508114659 49 194 2.0 6.0 0.00 0.00 0.00 65 1014.4
20260508114601 49 216 4.0 8.0 0.00 0.00 0.00 65 1014.3
20260508114301 48 195 6.0 8.0 0.00 0.00 0.00 65 1014.2
20260508114159 48 285 3.0 8.0 0.00 0.00 0.00 65 1014.4
20260508114101 48 186 2.0 8.0 0.00 0.00 0.00 65 1014.3
20260508114000 48 211 1.0 8.0 0.00 0.00 0.00 65 1014.3
20260508113859 48 157 2.0 8.0 0.00 0.00 0.00 65 1014.3
20260508113559 48 192 6.0 7.0 0.00 0.00 0.00 66 1014.3
20260508113400 48 198 3.0 6.0 0.00 0.00 0.00 66 1014.3
20260508113301 48 199 0.0 5.0 0.00 0.00 0.00 66 1014.3
20260508113059 48 178 1.0 5.0 0.00 0.00 0.00 66 1014.3
20260508113000 48 205 1.0 5.0 0.00 0.00 0.00 66 1014.2
20260508112859 48 290 0.0 5.0 0.00 0.00 0.00 66 1014.2
20260508112759 48 175 0.0 5.0 0.00 0.00 0.00 66 1014.2
20260508112659 48 185 5.0 5.0 0.00 0.00 0.00 65 1014.2
20260508112601 48 188 4.0 5.0 0.00 0.00 0.00 66 1014.2
20260508112459 48 197 2.0 5.0 0.00 0.00 0.00 66 1014.2
20260508112359 48 198 1.0 5.0 0.00 0.00 0.00 65 1014.2
20260508112159 48 196 1.0 5.0 0.00 0.00 0.00 65 1014.2
20260508112059 48 266 2.0 5.0 0.00 0.00 0.00 65 1014.2
20260508111959 48 190 1.0 5.0 0.00 0.00 0.00 66 1014.2
20260508111858 48 206 2.0 5.0 0.00 0.00 0.00 65 1014.2
20260508111800 48 190 0.0 5.0 0.00 0.00 0.00 65 1014.2
20260508111701 48 181 0.0 5.0 0.00 0.00 0.00 65 1014.3
20260508111600 48 171 1.0 5.0 0.00 0.00 0.00 65 1014.1
20260508111359 48 175 3.0 5.0 0.00 0.00 0.00 64 1014.2
20260508111259 48 168 5.0 5.0 0.00 0.00 0.00 65 1014.2
20260508111159 48 211 2.0 3.0 0.00 0.00 0.00 65 1014.2
20260508111059 48 212 2.0 3.0 0.00 0.00 0.00 64 1014.2
20260508110959 48 179 0.0 5.0 0.00 0.00 0.00 64 1014.2
20260508110801 48 194 2.0 6.0 0.00 0.00 0.00 65 1014.2
20260508110659 48 234 0.0 6.0 0.00 0.00 0.00 65 1014.2
20260508110600 48 189 0.0 6.0 0.00 0.00 0.00 64 1014.1
20260508110500 48 188 1.0 6.0 0.00 0.00 0.00 64 1014.2
20260508110301 48 341 1.0 6.0 0.00 0.00 0.00 64 1014.1
20260508110158 48 269 0.0 6.0 0.00 0.00 0.00 64 1014.0
20260508110059 48 224 5.0 6.0 0.00 0.00 0.00 64 1014.0
20260508110002 48 240 1.0 6.0 0.00 0.00 0.00 64 1014.0
20260508105859 49 198 0.0 4.0 0.00 0.00 0.00 64 1014.0
20260508105758 49 211 0.0 5.0 0.00 0.00 0.00 64 1013.9
20260508105659 49 195 1.0 6.0 0.00 0.00 0.00 64 1014.0
20260508105559 49 221 0.0 6.0 0.00 0.00 0.00 64 1014.0
20260508105459 49 232 2.0 6.0 0.00 0.00 0.00 64 1014.0
20260508105401 49 223 2.0 6.0 0.00 0.00 0.00 63 1014.0
20260508105259 49 250 3.0 6.0 0.00 0.00 0.00 64 1014.0
20260508105159 49 203 3.0 6.0 0.00 0.00 0.00 64 1013.9
20260508105100 49 208 2.0 6.0 0.00 0.00 0.00 63 1014.0
20260508105000 49 198 1.0 6.0 0.00 0.00 0.00 64 1014.0
20260508104858 49 225 0.0 6.0 0.00 0.00 0.00 64 1014.0
20260508104759 49 234 0.0 6.0 0.00 0.00 0.00 64 1014.0
20260508104659 49 240 0.0 6.0 0.00 0.00 0.00 63 1014.1
20260508104559 49 220 2.0 6.0 0.00 0.00 0.00 63 1014.1
20260508104501 49 215 2.0 6.0 0.00 0.00 0.00 64 1014.0
20260508104359 49 213 2.0 6.0 0.00 0.00 0.00 64 1014.0
20260508104259 49 215 1.0 7.0 0.00 0.00 0.00 63 1014.0
20260508104159 49 196 0.0 7.0 0.00 0.00 0.00 63 1014.0
20260508103859 49 206 2.0 7.0 0.00 0.00 0.00 63 1014.1
20260508103759 49 202 3.0 7.0 0.00 0.00 0.00 63 1014.0
20260508103659 49 226 2.0 7.0 0.00 0.00 0.00 64 1014.0
20260508103600 49 221 3.0 7.0 0.00 0.00 0.00 63 1014.0
20260508103359 49 190 2.0 6.0 0.00 0.00 0.00 63 1014.0
20260508103202 49 191 0.0 5.0 0.00 0.00 0.00 63 1014.0
20260508103100 49 161 2.0 5.0 0.00 0.00 0.00 63 1014.0
20260508102900 49 257 1.0 5.0 0.00 0.00 0.00 63 1014.0
20260508102758 49 164 4.0 5.0 0.00 0.00 0.00 63 1014.0
20260508102701 49 144 1.0 5.0 0.00 0.00 0.00 63 1014.0
20260508102459 49 237 2.0 4.0 0.00 0.00 0.00 63 1014.0
20260508102359 49 211 0.0 4.0 0.00 0.00 0.00 63 1014.1
20260508102259 49 217 1.0 4.0 0.00 0.00 0.00 63 1014.0
20260508102200 49 172 2.0 4.0 0.00 0.00 0.00 63 1014.0
20260508102059 49 190 0.0 4.0 0.00 0.00 0.00 63 1014.0
20260508101959 49 198 0.0 4.0 0.00 0.00 0.00 63 1014.0
20260508101900 49 238 0.0 4.0 0.00 0.00 0.00 63 1014.0
20260508101800 49 219 0.0 4.0 0.00 0.00 0.00 63 1014.0
20260508101600 49 223 4.0 4.0 0.00 0.00 0.00 63 1014.0
20260508101459 49 234 2.0 4.0 0.00 0.00 0.00 63 1014.1
20260508101359 49 275 1.0 5.0 0.00 0.00 0.00 63 1014.0
20260508101258 49 207 2.0 6.0 0.00 0.00 0.00 63 1014.0
20260508101202 49 179 3.0 6.0 0.00 0.00 0.00 63 1014.0
20260508101059 49 209 3.0 6.0 0.00 0.00 0.00 63 1014.1
20260508100958 49 210 1.0 6.0 0.00 0.00 0.00 63 1014.0
20260508100859 49 172 1.0 6.0 0.00 0.00 0.00 62 1014.0
20260508100759 49 254 3.0 6.0 0.00 0.00 0.00 63 1014.1
20260508100700 49 173 3.0 6.0 0.00 0.00 0.00 63 1014.1
20260508100501 49 222 0.0 6.0 0.00 0.00 0.00 62 1014.1
20260508100400 49 177 6.0 7.0 0.00 0.00 0.00 62 1014.1
20260508100259 49 228 1.0 5.0 0.00 0.00 0.00 62 1014.0
20260508100200 49 192 2.0 5.0 0.00 0.00 0.00 63 1014.1
20260508100100 49 215 1.0 5.0 0.00 0.00 0.00 62 1014.1
20260508095958 49 191 1.0 5.0 0.00 0.00 0.00 63 1014.1
20260508095900 49 216 2.0 5.0 0.00 0.00 0.00 62 1014.1
20260508095759 49 189 1.0 5.0 0.00 0.00 0.00 63 1014.1
20260508095659 49 195 0.0 7.0 0.00 0.00 0.00 63 1014.0
20260508095600 49 194 2.0 9.0 0.00 0.00 0.00 63 1014.0
20260508095500 49 197 4.0 9.0 0.00 0.00 0.00 62 1014.0
20260508095401 49 212 0.0 9.0 0.00 0.00 0.00 62 1014.1
20260508095159 49 273 1.0 9.0 0.00 0.00 0.00 62 1014.0
20260508095100 49 184 2.0 9.0 0.00 0.00 0.00 62 1014.0
20260508095000 49 204 3.0 9.0 0.00 0.00 0.00 62 1014.1
20260508094900 49 209 2.0 9.0 0.00 0.00 0.00 61 1014.1
20260508094759 49 232 2.0 9.0 0.00 0.00 0.00 63 1014.1
20260508094659 49 270 2.0 6.0 0.00 0.00 0.00 63 1014.1
20260508094459 49 198 1.0 6.0 0.00 0.00 0.00 63 1014.1
20260508094359 49 198 1.0 6.0 0.00 0.00 0.00 63 1014.0
20260508094259 49 202 2.0 6.0 0.00 0.00 0.00 62 1014.1
20260508094159 49 248 0.0 6.0 0.00 0.00 0.00 62 1014.1
20260508094059 49 188 2.0 6.0 0.00 0.00 0.00 62 1014.1
20260508094000 49 205 0.0 6.0 0.00 0.00 0.00 62 1014.1
20260508093859 49 196 1.0 7.0 0.00 0.00 0.00 62 1014.1
20260508093759 49 192 5.0 7.0 0.00 0.00 0.00 63 1014.1
20260508093700 49 210 1.0 7.0 0.00 0.00 0.00 63 1014.1
20260508093559 49 198 1.0 7.0 0.00 0.00 0.00 63 1014.1
20260508093359 49 143 1.0 5.0 0.00 0.00 0.00 63 1014.1
20260508093259 49 206 2.0 5.0 0.00 0.00 0.00 63 1014.2
20260508093159 49 236 1.0 5.0 0.00 0.00 0.00 62 1014.0
20260508093100 49 167 4.0 5.0 0.00 0.00 0.00 63 1014.1
20260508092958 49 209 0.0 5.0 0.00 0.00 0.00 63 1014.1
20260508092759 49 173 2.0 4.0 0.00 0.00 0.00 63 1014.1
20260508092659 49 346 1.0 4.0 0.00 0.00 0.00 63 1014.1
20260508092559 49 170 2.0 5.0 0.00 0.00 0.00 63 1014.1
20260508092500 48 263 1.0 5.0 0.00 0.00 0.00 63 1014.0
20260508092359 48 345 1.0 6.0 0.00 0.00 0.00 64 1014.0
20260508092259 48 226 0.0 6.0 0.00 0.00 0.00 64 1014.1
20260508092200 48 234 0.0 6.0 0.00 0.00 0.00 64 1014.1
20260508091959 48 187 0.0 6.0 0.00 0.00 0.00 63 1014.1
20260508091858 48 192 1.0 6.0 0.00 0.00 0.00 63 1014.0
20260508091700 48 196 3.0 6.0 0.00 0.00 0.00 64 1014.0
20260508091558 48 200 2.0 6.0 0.00 0.00 0.00 63 1014.0
20260508091501 48 211 4.0 5.0 0.00 0.00 0.00 64 1014.0
20260508091359 48 173 2.0 5.0 0.00 0.00 0.00 64 1014.1
20260508091300 48 194 5.0 5.0 0.00 0.00 0.00 65 1014.1
20260508091159 48 193 3.0 5.0 0.00 0.00 0.00 65 1014.1
20260508091100 48 194 3.0 5.0 0.00 0.00 0.00 65 1014.1
20260508091002 48 17 2.0 4.0 0.00 0.00 0.00 65 1014.1
20260508090859 48 221 1.0 4.0 0.00 0.00 0.00 65 1014.2
20260508090759 48 184 0.0 4.0 0.00 0.00 0.00 65 1014.2
20260508090658 48 283 0.0 4.0 0.00 0.00 0.00 65 1014.1
20260508090600 48 162 0.0 4.0 0.00 0.00 0.00 65 1014.2
20260508090500 48 139 0.0 4.0 0.00 0.00 0.00 65 1014.2
20260508090359 48 202 0.0 4.0 0.00 0.00 0.00 65 1014.2
20260508090100 48 201 2.0 4.0 0.00 0.00 0.00 65 1014.2
20260508085858 48 202 1.0 4.0 0.00 0.00 0.00 65 1014.1
20260508085758 48 208 0.0 4.0 0.00 0.00 0.00 65 1014.1
20260508085659 48 180 2.0 4.0 0.00 0.00 0.00 65 1014.1
20260508085457 48 250 0.0 5.0 0.00 0.00 0.00 65 1014.2
20260508085359 48 213 1.0 5.0 0.00 0.00 0.00 65 1014.1
20260508085258 48 187 2.0 5.0 0.00 0.00 0.00 65 1014.2
20260508085158 48 230 1.0 9.0 0.00 0.00 0.00 65 1014.2
20260508085059 48 201 2.0 9.0 0.00 0.00 0.00 65 1014.1
20260508084958 48 227 1.0 9.0 0.00 0.00 0.00 65 1014.2
20260508084657 48 178 2.0 9.0 0.00 0.00 0.00 65 1014.2
20260508084558 48 200 2.0 9.0 0.00 0.00 0.00 64 1014.1
20260508084359 48 268 1.0 10.0 0.00 0.00 0.00 65 1014.1
20260508084258 48 208 0.0 3.0 0.00 0.00 0.00 65 1014.1
20260508084158 48 197 0.0 6.0 0.00 0.00 0.00 65 1014.0
20260508084058 48 271 0.0 6.0 0.00 0.00 0.00 65 1014.2
20260508083958 48 295 0.0 6.0 0.00 0.00 0.00 65 1014.0
20260508083759 48 198 0.0 6.0 0.00 0.00 0.00 65 1014.0
20260508083659 48 198 2.0 6.0 0.00 0.00 0.00 64 1014.1
20260508083558 48 200 1.0 6.0 0.00 0.00 0.00 64 1014.1
20260508083458 48 223 0.0 6.0 0.00 0.00 0.00 64 1014.1
20260508083258 48 247 1.0 4.0 0.00 0.00 0.00 64 1014.0
20260508083157 48 215 0.0 4.0 0.00 0.00 0.00 64 1014.0
20260508083059 48 180 0.0 4.0 0.00 0.00 0.00 64 1014.0
20260508083000 48 225 0.0 4.0 0.00 0.00 0.00 64 1014.0
20260508082859 48 196 0.0 4.0 0.00 0.00 0.00 64 1014.0
20260508082757 48 192 3.0 4.0 0.00 0.00 0.00 64 1014.0
20260508082701 48 186 1.0 4.0 0.00 0.00 0.00 64 1014.0
20260508082558 48 182 2.0 4.0 0.00 0.00 0.00 64 1014.0
20260508082458 48 208 1.0 4.0 0.00 0.00 0.00 65 1013.9
20260508082258 48 203 1.0 6.0 0.00 0.00 0.00 64 1014.1
20260508082158 48 175 4.0 6.0 0.00 0.00 0.00 64 1014.0
20260508082100 48 213 0.0 6.0 0.00 0.00 0.00 64 1014.0
20260508082000 48 170 1.0 6.0 0.00 0.00 0.00 64 1014.0
20260508081858 48 187 3.0 6.0 0.00 0.00 0.00 64 1014.0
20260508081759 48 234 1.0 6.0 0.00 0.00 0.00 64 1014.0
20260508081658 48 243 0.0 6.0 0.00 0.00 0.00 64 1013.9
20260508081459 48 229 2.0 4.0 0.00 0.00 0.00 64 1014.0
20260508081358 48 214 0.0 4.0 0.00 0.00 0.00 64 1014.1
20260508081258 48 205 1.0 4.0 0.00 0.00 0.00 64 1014.0
20260508081158 48 213 4.0 5.0 0.00 0.00 0.00 64 1014.0
20260508081058 48 198 1.0 4.0 0.00 0.00 0.00 64 1013.9
20260508081000 48 206 0.0 4.0 0.00 0.00 0.00 64 1013.9
20260508080858 48 313 1.0 4.0 0.00 0.00 0.00 64 1013.9
20260508080658 48 214 2.0 4.0 0.00 0.00 0.00 64 1014.0
20260508080558 48 205 0.0 4.0 0.00 0.00 0.00 63 1013.9
20260508080458 48 212 2.0 4.0 0.00 0.00 0.00 63 1013.9
20260508080358 48 210 2.0 4.0 0.00 0.00 0.00 63 1014.0
20260508080258 48 227 0.0 3.0 0.00 0.00 0.00 64 1013.8
20260508080158 48 238 0.0 3.0 0.00 0.00 0.00 65 1013.9
20260508075959 48 227 2.0 3.0 0.00 0.00 0.00 64 1013.9
20260508075758 48 193 0.0 3.0 0.00 0.00 0.00 64 1013.9
20260508075657 48 196 0.0 3.0 0.00 0.00 0.00 64 1013.8
20260508075558 48 196 0.0 3.0 0.00 0.00 0.00 64 1014.0
20260508075358 48 172 1.0 5.0 0.00 0.00 0.00 63 1014.0
20260508075058 48 211 1.0 5.0 0.00 0.00 0.00 63 1013.9
20260508074859 48 182 1.0 5.0 0.00 0.00 0.00 63 1013.9
20260508074758 48 173 1.0 5.0 0.00 0.00 0.00 63 1014.0
20260508074658 48 232 1.0 4.0 0.00 0.00 0.00 63 1014.0
20260508074458 48 191 2.0 4.0 0.00 0.00 0.00 63 1014.0
20260508074359 49 192 0.0 4.0 0.00 0.00 0.00 63 1014.0
20260508074258 49 228 0.0 4.0 0.00 0.00 0.00 62 1014.0
20260508074157 49 216 1.0 4.0 0.00 0.00 0.00 63 1014.0
20260508074058 49 216 1.0 4.0 0.00 0.00 0.00 62 1014.0
20260508073958 49 229 1.0 4.0 0.00 0.00 0.00 63 1014.0
20260508073858 49 261 1.0 4.0 0.00 0.00 0.00 63 1013.9
20260508073759 49 199 0.0 4.0 0.00 0.00 0.00 63 1013.9
20260508073657 49 175 2.0 4.0 0.00 0.00 0.00 62 1013.9
20260508073458 49 228 0.0 0.0 0.00 0.00 0.00 63 1013.8
20260508073358 49 219 0.0 2.0 0.00 0.00 0.00 63 1013.9
20260508073158 49 217 0.0 6.0 0.00 0.00 0.00 62 1013.9
20260508072958 49 210 0.0 6.0 0.00 0.00 0.00 62 1013.8
20260508072900 49 188 0.0 6.0 0.00 0.00 0.00 62 1013.8
20260508072758 49 190 0.0 6.0 0.00 0.00 0.00 62 1013.9
20260508072659 49 197 0.0 6.0 0.00 0.00 0.00 62 1013.9
20260508072557 49 196 0.0 6.0 0.00 0.00 0.00 62 1013.9
20260508072458 49 187 1.0 6.0 0.00 0.00 0.00 62 1013.9
20260508072359 49 198 2.0 6.0 0.00 0.00 0.00 62 1014.0
20260508072259 49 194 2.0 4.0 0.00 0.00 0.00 62 1013.9
20260508072058 49 188 1.0 4.0 0.00 0.00 0.00 62 1014.0
20260508072000 49 232 1.0 655.0 1.26 0.00 0.00 62
20260508071859 49 217 1.0 5.0 0.00 0.00 0.00 62 1013.9
20260508071759 49 173 0.0 5.0 0.00 0.00 0.00 62 1014.0
20260508071658 49 198 0.0 5.0 0.00 0.00 0.00 62 1014.0
20260508071558 49 213 0.0 5.0 0.00 0.00 0.00 62 1014.0
20260508071458 49 232 1.0 5.0 0.00 0.00 0.00 62 1014.0
20260508071258 49 304 2.0 5.0 0.00 0.00 0.00 62 1014.0
20260508071157 49 314 1.0 5.0 0.00 0.00 0.00 62 1014.0
20260508071059 49 256 4.0 4.0 0.00 0.00 0.00 63 1014.0
20260508070958 49 192 0.0 3.0 0.00 0.00 0.00 63 1013.9
20260508070859 49 194 2.0 3.0 0.00 0.00 0.00 63 1013.9
20260508070759 49 244 1.0 3.0 0.00 0.00 0.00 63 1014.0
20260508070658 49 257 1.0 3.0 0.00 0.00 0.00 63 1014.0
20260508070458 49 196 1.0 5.0 0.00 0.00 0.00 62 1014.0
20260508070300 49 295 0.0 5.0 0.00 0.00 0.00 62 1014.0
20260508070157 49 209 0.0 5.0 0.00 0.00 0.00 62 1014.0
20260508070059 49 209 0.0 5.0 0.00 0.00 0.00 62 1013.9
20260508070000 49 207 0.0 5.0 0.00 0.00 0.00 62 1013.9
20260508065859 49 198 0.0 5.0 0.00 0.00 0.00 61 1013.9
20260508065759 49 187 3.0 5.0 0.00 0.00 0.00 62 1013.9
20260508065701 49 262 0.0 3.0 0.00 0.00 0.00 61 1013.8
20260508065559 49 262 0.0 5.0 0.00 0.00 0.00 61 1013.9
20260508065459 49 193 0.0 5.0 0.00 0.00 0.00 61 1014.0
20260508065400 49 193 2.0 5.0 0.00 0.00 0.00 61 1014.1
20260508065300 49 200 0.0 5.0 0.00 0.00 0.00 61 1014.0
20260508065159 49 201 0.0 5.0 0.00 0.00 0.00 61 1014.1
20260508065059 49 194 1.0 5.0 0.00 0.00 0.00 61 1014.0
20260508064902 49 230 0.0 6.0 0.00 0.00 0.00 60 1014.0
20260508064800 49 138 1.0 6.0 0.00 0.00 0.00 60 1014.0
20260508064659 49 174 6.0 6.0 0.00 0.00 0.00 61 1014.1
20260508064600 49 177 3.0 6.0 0.00 0.00 0.00 60 1014.1
20260508064403 50 231 0.0 6.0 0.00 0.00 0.00 60 1014.2
20260508064259 49 190 2.0 6.0 0.00 0.00 0.00 60 1014.3
20260508064158 50 194 2.0 6.0 0.00 0.00 0.00 60 1014.3
20260508064100 50 205 1.0 6.0 0.00 0.00 0.00 60 1014.3
20260508063759 50 189 1.0 5.0 0.00 0.00 0.00 60 1014.5
20260508063659 50 195 1.0 5.0 0.00 0.00 0.00 60 1014.4
20260508063559 50 175 2.0 5.0 0.00 0.00 0.00 60 1014.5
20260508063501 49 212 0.0 5.0 0.00 0.00 0.00 60 1014.5
20260508063401 49 184 0.0 5.0 0.00 0.00 0.00 60 1014.5
20260508063259 49 242 2.0 3.0 0.00 0.00 0.00 60 1014.6
20260508063201 50 213 1.0 3.0 0.00 0.00 0.00 60 1014.5
20260508063058 49 259 3.0 4.0 0.00 0.00 0.00 60 1014.5
20260508062959 49 313 2.0 4.0 0.00 0.00 0.00 60 1014.6
20260508062800 49 221 0.0 4.0 0.00 0.00 0.00 60 1014.6
20260508062700 49 214 0.0 4.0 0.00 0.00 0.00 60 1014.6
20260508062600 49 188 1.0 4.0 0.00 0.00 0.00 60 1014.5
20260508062500 49 206 2.0 4.0 0.00 0.00 0.00 60 1014.6
20260508062358 49 269 2.0 4.0 0.00 0.00 0.00 60 1014.6
20260508062159 49 312 0.0 6.0 0.00 0.00 0.00 60 1014.6
20260508062059 49 207 1.0 6.0 0.00 0.00 0.00 60 1014.7
20260508062000 49 317 1.0 6.0 0.00 0.00 0.00 60 1014.6
20260508061900 49 186 2.0 6.0 0.00 0.00 0.00 61 1014.6
20260508061800 49 244 2.0 6.0 0.00 0.00 0.00 61 1014.7
20260508061659 49 227 1.0 6.0 0.00 0.00 0.00 61 1014.7
20260508061559 49 227 1.0 6.0 0.00 0.00 0.00 61 1014.6
20260508061458 49 206 2.0 6.0 0.00 0.00 0.00 61 1014.7
20260508061400 49 270 0.0 6.0 0.00 0.00 0.00 61 1014.6
20260508061259 49 275 3.0 6.0 0.00 0.00 0.00 61 1014.7
20260508061200 49 216 0.0 2.0 0.00 0.00 0.00 61 1014.7
20260508061100 49 206 0.0 2.0 0.00 0.00 0.00 61 1014.7
20260508060959 49 211 0.0 2.0 0.00 0.00 0.00 61 1014.7
20260508060801 49 217 0.0 2.0 0.00 0.00 0.00 61 1014.7
20260508060658 49 263 0.0 2.0 0.00 0.00 0.00 61 1014.8
20260508060600 49 190 0.0 2.0 0.00 0.00 0.00 61 1014.8
20260508060359 49 229 0.0 2.0 0.00 0.00 0.00 61 1014.7
20260508060300 49 146 0.0 2.0 0.00 0.00 0.00 61 1014.8
20260508060059 49 217 0.0 3.0 0.00 0.00 0.00 61 1014.8
20260508060000 49 217 0.0 3.0 0.00 0.00 0.00 61 1014.8
20260508055859 49 244 0.0 3.0 0.00 0.00 0.00 62 1014.8
20260508055759 49 255 0.0 3.0 0.00 0.00 0.00 61 1014.8
20260508055658 49 307 0.0 3.0 0.00 0.00 0.00 61 1014.7
20260508055600 49 259 0.0 3.0 0.00 0.00 0.00 61 1014.8
20260508055359 49 215 0.0 3.0 0.00 0.00 0.00 61 1014.7
20260508055300 49 281 0.0 3.0 0.00 0.00 0.00 61 1014.7
20260508055200 49 283 1.0 3.0 0.00 0.00 0.00 60 1014.7
20260508055059 49 292 2.0 2.0 0.00 0.00 0.00 60 1014.7
20260508055000 49 263 0.0 2.0 0.00 0.00 0.00 60 1014.7
20260508054859 49 263 1.0 2.0 0.00 0.00 0.00 60 1014.6
20260508054800 49 196 0.0 2.0 0.00 0.00 0.00 60 1014.6
20260508054659 49 193 1.0 2.0 0.00 0.00 0.00 60 1014.6
20260508054559 49 309 0.0 2.0 0.00 0.00 0.00 60 1014.6
20260508054358 50 277 0.0 3.0 0.00 0.00 0.00 59 1014.6
20260508054301 50 277 2.0 3.0 0.00 0.00 0.00 60 1014.6
20260508054159 50 267 0.0 3.0 0.00 0.00 0.00 59 1014.6
20260508054058 50 275 2.0 3.0 0.00 0.00 0.00 59 1014.7
20260508053959 50 246 0.0 3.0 0.00 0.00 0.00 58 1014.7
20260508053859 50 246 0.0 3.0 0.00 0.00 0.00 58 1014.7
20260508053758 50 248 1.0 3.0 0.00 0.00 0.00 58 1014.6
20260508053700 50 239 2.0 5.0 0.00 0.00 0.00 58 1014.7
20260508053459 50 293 0.0 5.0 0.00 0.00 0.00 58 1014.6
20260508053359 50 286 0.0 5.0 0.00 0.00 0.00 58 1014.6
20260508053301 50 265 0.0 5.0 0.00 0.00 0.00 58 1014.6
20260508053100 50 197 0.0 5.0 0.00 0.00 0.00 57 1014.6
20260508052959 50 169 1.0 5.0 0.00 0.00 0.00 58 1014.6
20260508052901 50 219 3.0 5.0 0.00 0.00 0.00 58 1014.6
20260508052759 50 259 1.0 5.0 0.00 0.00 0.00 57 1014.6
20260508052701 50 291 0.0 5.0 0.00 0.00 0.00 57 1014.6
20260508052559 50 198 2.0 5.0 0.00 0.00 0.00 57 1014.5
20260508052500 50 198 3.0 5.0 0.00 0.00 0.00 58 1014.6
20260508052358 50 321 0.0 5.0 0.00 0.00 0.00 58 1014.6
20260508052259 50 234 1.0 5.0 0.00 0.00 0.00 58 1014.6
20260508052200 50 178 3.0 4.0 0.00 0.00 0.00 58 1014.6
20260508052100 50 252 1.0 3.0 0.00 0.00 0.00 57 1014.6
20260508052000 50 347 2.0 3.0 0.00 0.00 0.00 58 1014.6
20260508051859 50 194 1.0 3.0 0.00 0.00 0.00 58 1014.5
20260508051758 50 187 1.0 3.0 0.00 0.00 0.00 58 1014.6
20260508051700 50 195 0.0 5.0 0.00 0.00 0.00 58 1014.5
20260508051601 50 190 0.0 5.0 0.00 0.00 0.00 57 1014.5
20260508051500 50 192 0.0 5.0 0.00 0.00 0.00 57 1014.5
20260508051400 50 192 0.0 5.0 0.00 0.00 0.00 57 1014.5
20260508051259 50 227 1.0 5.0 0.00 0.00 0.00 57 1014.5
20260508051159 50 227 2.0 5.0 0.00 0.00 0.00 57 1014.6
20260508051101 50 237 0.0 5.0 0.00 0.00 0.00 57 1014.6
20260508051000 50 200 0.0 5.0 0.00 0.00 0.00 57 1014.5
20260508050858 50 202 1.0 5.0 0.00 0.00 0.00 56 1014.6
20260508050800 50 236 0.0 4.0 0.00 0.00 0.00 57 1014.6
20260508050659 50 254 0.0 4.0 0.00 0.00 0.00 56 1014.5
20260508050459 50 219 1.0 6.0 0.00 0.00 0.00 56 1014.5
20260508050359 50 211 1.0 6.0 0.00 0.00 0.00 56 1014.5
20260508050159 50 186 2.0 6.0 0.00 0.00 0.00 56 1014.4
20260508050059 50 274 0.0 6.0 0.00 0.00 0.00 57 1014.4
20260508050000 50 225 0.0 6.0 0.00 0.00 0.00 56 1014.4
20260508045900 50 200 0.0 6.0 0.00 0.00 0.00 56 1014.5
20260508045759 50 218 0.0 6.0 0.00 0.00 0.00 56 1014.5
20260508045658 50 169 5.0 5.0 0.00 0.00 0.00 57 1014.4
20260508045558 50 192 0.0 5.0 0.00 0.00 0.00 56 1014.5
20260508045358 50 204 2.0 5.0 0.00 0.00 0.00 57 1014.4
20260508045059 50 237 2.0 3.0 0.00 0.00 0.00 57 1014.4
20260508044957 50 293 1.0 3.0 0.00 0.00 0.00 57 1014.5
20260508044859 50 212 0.0 3.0 0.00 0.00 0.00 56 1014.5
20260508044759 50 212 0.0 3.0 0.00 0.00 0.00 57 1014.5
20260508044658 50 211 0.0 3.0 0.00 0.00 0.00 56 1014.5
20260508044558 50 211 0.0 3.0 0.00 0.00 0.00 57 1014.6
20260508044458 50 199 3.0 3.0 0.00 0.00 0.00 57 1014.6
20260508044358 50 161 4.0 4.0 0.00 0.00 0.00 58 1014.5
20260508044259 50 200 0.0 3.0 0.00 0.00 0.00 58 1014.5
20260508044200 50 209 1.0 3.0 0.00 0.00 0.00 58 1014.5
20260508044058 50 294 0.0 3.0 0.00 0.00 0.00 57 1014.5
20260508043959 50 223 2.0 3.0 0.00 0.00 0.00 58 1014.6
20260508043758 50 188 1.0 3.0 0.00 0.00 0.00 57 1014.6
20260508043658 50 194 2.0 3.0 0.00 0.00 0.00 57 1014.6
20260508043559 50 261 3.0 3.0 0.00 0.00 0.00 57 1014.6
20260508043258 49 227 0.0 3.0 0.00 0.00 0.00 58 1014.6
20260508043202 49 226 1.0 3.0 0.00 0.00 0.00 57 1014.6
20260508043101 49 226 0.0 2.0 0.00 0.00 0.00 57 1014.6
20260508043001 49 226 0.0 2.0 0.00 0.00 0.00 58 1014.5
20260508042902 49 226 0.0 2.0 0.00 0.00 0.00 58 1014.5
20260508042801 49 226 0.0 2.0 0.00 0.00 0.00 58 1014.5
20260508042701 49 226 0.0 2.0 0.00 0.00 0.00 58 1014.5
20260508042601 49 226 2.0 2.0 0.00 0.00 0.00 58 1014.5
20260508042501 49 229 1.0 1.0 0.00 0.00 0.00 58 1014.5
20260508042402 49 229 0.0 2.0 0.00 0.00 0.00 59 1014.5
20260508042306 49 259 0.0 2.0 0.00 0.00 0.00 59 1014.5
20260508042101 49 217 0.0 2.0 0.00 0.00 0.00 58 1014.5
20260508042002 49 217 0.0 2.0 0.00 0.00 0.00 59 1014.5
20260508041902 49 217 0.0 2.0 0.00 0.00 0.00 59 1014.5
20260508041801 49 217 0.0 2.0 0.00 0.00 0.00 59 1014.5
20260508041702 49 219 0.0 2.0 0.00 0.00 0.00 59 1014.5
20260508041602 49 219 0.0 2.0 0.00 0.00 0.00 59 1014.5
20260508041501 49 229 2.0 3.0 0.00 0.00 0.00 60 1014.6
20260508041401 49 178 0.0 3.0 0.00 0.00 0.00 59 1014.6
20260508041301 49 178 0.0 3.0 0.00 0.00 0.00 59 1014.6
20260508041101 49 184 1.0 3.0 0.00 0.00 0.00 60 1014.5
20260508041002 49 211 0.0 3.0 0.00 0.00 0.00 60 1014.5
20260508040902 49 212 0.0 3.0 0.00 0.00 0.00 60 1014.5
20260508040702 48 207 0.0 3.0 0.00 0.00 0.00 60 1014.4
20260508040501 48 225 0.0 3.0 0.00 0.00 0.00 61 1014.4
20260508040401 48 191 1.0 3.0 0.00 0.00 0.00 61 1014.4
20260508040302 48 211 1.0 3.0 0.00 0.00 0.00 62 1014.5
20260508040202 48 206 0.0 3.0 0.00 0.00 0.00 61 1014.4
20260508040103 48 206 1.0 4.0 0.00 0.00 0.00 62 1014.4
20260508040000 48 231 1.0 2.0 0.00 0.00 0.00 62 1014.3
20260508035901 47 165 0.0 2.0 0.00 0.00 0.00 62 1014.4
20260508035800 47 165 0.0 2.0 0.00 0.00 0.00 63 1014.4
20260508035700 47 165 0.0 2.0 0.00 0.00 0.00 63 1014.4
20260508035501 47 157 0.0 2.0 0.00 0.00 0.00 63 1014.4
20260508035401 47 135 0.0 2.0 0.00 0.00 0.00 64 1014.4
20260508035259 47 135 0.0 2.0 0.00 0.00 0.00 64 1014.5
20260508035201 47 144 0.0 2.0 0.00 0.00 0.00 63 1014.4
20260508035101 47 146 0.0 2.0 0.00 0.00 0.00 64 1014.4
20260508035000 47 183 0.0 2.0 0.00 0.00 0.00 65 1014.4
20260508034859 47 183 0.0 2.0 0.00 0.00 0.00 64 1014.5
20260508034801 47 183 0.0 2.0 0.00 0.00 0.00 65 1014.5
20260508034701 46 183 0.0 2.0 0.00 0.00 0.00 64 1014.5
20260508034601 46 208 0.0 1.0 0.00 0.00 0.00 65 1014.5
20260508034500 46 208 0.0 1.0 0.00 0.00 0.00 65 1014.4
20260508034400 46 208 0.0 1.0 0.00 0.00 0.00 66 1014.4
20260508034159 46 208 0.0 0.0 0.00 0.00 0.00 66 1014.5
20260508034059 46 208 0.0 0.0 0.00 0.00 0.00 66 1014.5
20260508033901 46 208 0.0 0.0 0.00 0.00 0.00 66 1014.5
20260508033800 46 208 0.0 0.0 0.00 0.00 0.00 67 1014.5
20260508033700 46 208 0.0 0.0 0.00 0.00 0.00 66 1014.5
20260508033602 46 208 0.0 0.0 0.00 0.00 0.00 67 1014.6
20260508033400 46 208 0.0 0.0 0.00 0.00 0.00 66 1014.6
20260508033300 46 208 0.0 0.0 0.00 0.00 0.00 66 1014.6
20260508033201 46 208 0.0 1.0 0.00 0.00 0.00 67 1014.6
20260508033100 46 208 0.0 1.0 0.00 0.00 0.00 66 1014.5
20260508032800 46 208 0.0 1.0 0.00 0.00 0.00 66 1014.6
20260508032600 46 208 0.0 1.0 0.00 0.00 0.00 66 1014.7
20260508032501 46 208 0.0 1.0 0.00 0.00 0.00 66 1014.6
20260508032401 46 208 0.0 1.0 0.00 0.00 0.00 65 1014.6
20260508032301 46 208 0.0 0.0 0.00 0.00 0.00 66 1014.6
20260508032200 46 208 0.0 0.0 0.00 0.00 0.00 66 1014.6
20260508032100 46 208 0.0 0.0 0.00 0.00 0.00 67 1014.7
20260508032000 46 208 0.0 0.0 0.00 0.00 0.00 67 1014.6
20260508031900 46 208 0.0 0.0 0.00 0.00 0.00 67 1014.6
20260508031600 46 208 0.0 0.0 0.00 0.00 0.00 69 1014.6
20260508031501 46 208 0.0 0.0 0.00 0.00 0.00 69 1014.5
20260508031259 46 208 0.0 0.0 0.00 0.00 0.00 69 1014.6
20260508031102 46 208 0.0 0.0 0.00 0.00 0.00 69 1014.5
20260508031000 46 208 0.0 0.0 0.00 0.00 0.00 70 1014.5
20260508030902 46 208 0.0 0.0 0.00 0.00 0.00 70 1014.5
20260508030800 46 208 0.0 0.0 0.00 0.00 0.00 70 1014.5
20260508030700 46 208 0.0 0.0 0.00 0.00 0.00 70 1014.5
20260508030600 46 208 0.0 0.0 0.00 0.00 0.00 70 1014.5
20260508030400 46 208 0.0 0.0 0.00 0.00 0.00 70 1014.5
20260508030300 46 208 0.0 0.0 0.00 0.00 0.00 70 1014.5
20260508030159 46 208 0.0 0.0 0.00 0.00 0.00 69 1014.5
20260508030059 46 208 0.0 0.0 0.00 0.00 0.00 68 1014.4
20260508030000 46 208 0.0 0.0 0.00 0.00 0.00 68 1014.5
20260508025903 46 208 0.0 0.0 0.00 0.00 0.00 69 1014.5
20260508025802 46 208 0.0 0.0 0.00 0.00 0.00 69 1014.4
20260508025701 46 208 0.0 0.0 0.00 0.00 0.00 69 1014.5
20260508025601 46 208 0.0 0.0 0.00 0.00 0.00 69 1014.5
20260508025501 46 208 0.0 0.0 0.00 0.00 0.00 69 1014.5
20260508025401 46 208 0.0 0.0 0.00 0.00 0.00 69 1014.5
20260508025305 46 208 0.0 0.0 0.00 0.00 0.00 69 1014.5
20260508025201 46 208 0.0 0.0 0.00 0.00 0.00 69 1014.5
20260508025100 46 208 0.0 0.0 0.00 0.00 0.00 69 1014.5
20260508025001 46 208 0.0 0.0 0.00 0.00 0.00 70 1014.5
20260508024902 46 208 0.0 0.0 0.00 0.00 0.00 70 1014.5
20260508024802 46 208 0.0 0.0 0.00 0.00 0.00 70 1014.5
20260508024700 46 208 0.0 0.0 0.00 0.00 0.00 70 1014.5
20260508024602 46 208 0.0 0.0 0.00 0.00 0.00 70 1014.5
20260508024502 46 208 0.0 0.0 0.00 0.00 0.00 70 1014.4
20260508024302 46 208 0.0 0.0 0.00 0.00 0.00 70 1014.5
20260508024202 46 208 0.0 0.0 0.00 0.00 0.00 70 1014.5
20260508024102 46 208 0.0 0.0 0.00 0.00 0.00 70 1014.5
20260508023901 46 208 0.0 0.0 0.00 0.00 0.00 70 1014.5
20260508023802 47 208 0.0 0.0 0.00 0.00 0.00 70 1014.5
20260508023702 47 208 0.0 0.0 0.00 0.00 0.00 70 1014.4
20260508023601 47 208 0.0 0.0 0.00 0.00 0.00 70 1014.6
20260508023401 47 208 0.0 0.0 0.00 0.00 0.00 70 1014.5
20260508023301 47 208 0.0 0.0 0.00 0.00 0.00 70 1014.5
20260508023101 47 208 0.0 0.0 0.00 0.00 0.00 70 1014.4
20260508023001 47 208 0.0 0.0 0.00 0.00 0.00 70 1014.5
20260508022901 47 208 0.0 0.0 0.00 0.00 0.00 70 1014.5
20260508022801 47 208 0.0 0.0 0.00 0.00 0.00 70 1014.5
20260508022701 47 208 0.0 0.0 0.00 0.00 0.00 70 1014.4
20260508022601 47 208 0.0 0.0 0.00 0.00 0.00 70 1014.5
20260508022503 47 208 0.0 0.0 0.00 0.00 0.00 69 1014.5
20260508022401 47 208 0.0 0.0 0.00 0.00 0.00 69 1014.5
20260508022301 47 208 0.0 0.0 0.00 0.00 0.00 69 1014.4
20260508022202 47 208 0.0 0.0 0.00 0.00 0.00 68 1014.5
20260508022101 47 208 0.0 0.0 0.00 0.00 0.00 68 1014.4
20260508022001 47 208 0.0 0.0 0.00 0.00 0.00 67 1014.4
20260508021900 47 208 0.0 0.0 0.00 0.00 0.00 67 1014.4
20260508021703 47 208 0.0 0.0 0.00 0.00 0.00 68 1014.4
20260508021602 47 208 0.0 0.0 0.00 0.00 0.00 68 1014.3
20260508021502 47 208 0.0 0.0 0.00 0.00 0.00 68 1014.3
20260508021301 47 208 0.0 0.0 0.00 0.00 0.00 68 1014.3
20260508021201 47 208 0.0 0.0 0.00 0.00 0.00 68 1014.3
20260508021103 47 208 0.0 0.0 0.00 0.00 0.00 68 1014.3
20260508020902 47 208 0.0 0.0 0.00 0.00 0.00 68 1014.3
20260508020701 48 208 0.0 0.0 0.00 0.00 0.00 68 1014.4
20260508020403 48 208 0.0 0.0 0.00 0.00 0.00 68 1014.5
20260508020301 48 208 0.0 0.0 0.00 0.00 0.00 67 1014.5
20260508020201 48 208 0.0 0.0 0.00 0.00 0.00 67 1014.4
20260508020004 48 208 0.0 0.0 0.00 0.00 0.00 67 1014.4
20260508015900 48 208 0.0 0.0 0.00 0.00 0.00 67 1014.4
20260508015600 48 208 0.0 0.0 0.00 0.00 0.00 67 1014.5
20260508015200 48 208 0.0 0.0 0.00 0.00 0.00 65 1014.4
20260508015100 48 208 0.0 0.0 0.00 0.00 0.00 65 1014.5
20260508014900 48 208 0.0 0.0 0.00 0.00 0.00 65 1014.4
20260508014802 49 208 0.0 0.0 0.00 0.00 0.00 65 1014.5
20260508014701 49 208 0.0 0.0 0.00 0.00 0.00 65 1014.4
20260508014600 49 208 0.0 0.0 0.00 0.00 0.00 65 1014.4
20260508014502 49 208 0.0 0.0 0.00 0.00 0.00 65 1014.4
20260508014402 49 208 0.0 0.0 0.00 0.00 0.00 65 1014.4
20260508014300 49 208 0.0 0.0 0.00 0.00 0.00 65 1014.4
20260508013959 49 208 0.0 0.0 0.00 0.00 0.00 65 1014.3
20260508013800 49 208 0.0 0.0 0.00 0.00 0.00 65 1014.4
20260508013600 49 208 0.0 0.0 0.00 0.00 0.00 66 1014.3
20260508013500 49 208 0.0 0.0 0.00 0.00 0.00 66 1014.4
20260508013401 49 208 0.0 0.0 0.00 0.00 0.00 66 1014.4
20260508013302 50 208 0.0 0.0 0.00 0.00 0.00 65 1014.3
20260508013101 50 208 0.0 0.0 0.00 0.00 0.00 64 1014.4
20260508013002 50 208 0.0 0.0 0.00 0.00 0.00 64 1014.4
20260508012903 50 208 0.0 0.0 0.00 0.00 0.00 64 1014.3
20260508012801 50 208 0.0 0.0 0.00 0.00 0.00 63 1014.3
20260508012601 50 208 0.0 0.0 0.00 0.00 0.00 63 1014.2
20260508012501 50 208 0.0 0.0 0.00 0.00 0.00 63 1014.2
20260508012402 50 208 0.0 0.0 0.00 0.00 0.00 62 1014.3
20260508012306 50 208 0.0 0.0 0.00 0.00 0.00 62 1014.3
20260508012201 51 208 0.0 0.0 0.00 0.00 0.00 62 1014.3
20260508012102 51 208 0.0 0.0 0.00 0.00 0.00 61 1014.3
20260508011802 51 208 0.0 0.0 0.00 0.00 0.00 61 1014.2
20260508011702 51 208 0.0 0.0 0.00 0.00 0.00 60 1014.2
20260508011501 51 208 0.0 0.0 0.00 0.00 0.00 59 1014.3
20260508011401 51 208 0.0 0.0 0.00 0.00 0.00 59 1014.2
20260508011300 51 208 0.0 0.0 0.00 0.00 0.00 59 1014.2
20260508011200 51 208 0.0 0.0 0.00 0.00 0.00 58 1014.2
20260508011101 52 208 0.0 0.0 0.00 0.00 0.00 58 1014.3
20260508011001 52 208 0.0 0.0 0.00 0.00 0.00 58 1014.2
20260508010802 52 208 0.0 0.0 0.00 0.00 0.00 57 1014.1
20260508010601 52 208 0.0 0.0 0.00 0.00 0.00 58 1014.2
20260508010501 52 208 0.0 0.0 0.00 0.00 0.00 57 1014.2
20260508010301 52 208 0.0 0.0 0.00 0.00 0.00 56 1014.2
20260508010202 52 208 0.0 0.0 0.00 0.00 0.00 56 1014.2
20260508010002 53 208 0.0 0.0 0.00 0.00 0.00 56 1014.3
20260508005900 53 208 0.0 0.0 0.00 0.00 0.00 55 1014.3
20260508005800 53 208 0.0 0.0 0.00 0.00 0.00 55 1014.2
20260508005702 53 208 0.0 0.0 0.00 0.00 0.00 54 1014.2
20260508005559 53 208 0.0 0.0 0.00 0.00 0.00 53 1014.2
20260508005501 53 208 0.0 0.0 0.00 0.00 0.00 52 1014.1
20260508005359 53 208 0.0 0.0 0.00 0.00 0.00 52 1014.2
20260508005259 53 208 0.0 0.0 0.00 0.00 0.00 52 1014.2
20260508005101 53 208 0.0 0.0 0.00 0.00 0.00 51 1014.1
20260508004900 54 208 0.0 0.0 0.00 0.00 0.00 50 1014.2
20260508004459 54 208 0.0 0.0 0.00 0.00 0.00 51 1014.1
20260508004159 54 208 0.0 0.0 0.00 0.00 0.00 50 1014.0
20260508004100 55 208 0.0 0.0 0.00 0.00 0.00 50 1014.1
20260508004001 55 208 0.0 0.0 0.00 0.00 0.00 49 1014.0
20260508003902 55 208 0.0 0.0 0.00 0.00 0.00 48 1014.0
20260508003800 55 208 0.0 0.0 0.00 0.00 0.00 47 1014.0
20260508003702 55 208 0.0 0.0 0.00 0.00 0.00 47 1014.0
20260508003459 55 208 0.0 0.0 0.00 0.00 0.00 48 1014.0
20260508003400 55 208 0.0 0.0 0.00 0.00 0.00 47 1014.1
20260508003300 55 208 0.0 1.0 0.00 0.00 0.00 47 1014.1
20260508003200 55 208 0.0 1.0 0.00 0.00 0.00 47 1014.0
20260508003100 55 208 0.0 1.0 0.00 0.00 0.00 45 1014.0
20260508002959 55 208 0.0 1.0 0.00 0.00 0.00 46 1014.2
20260508002901 55 208 0.0 1.0 0.00 0.00 0.00 46 1014.1
20260508002702 56 208 0.0 1.0 0.00 0.00 0.00 46 1014.1
20260508002600 56 208 0.0 1.0 0.00 0.00 0.00 46 1013.9
20260508002500 56 208 0.0 1.0 0.00 0.00 0.00 45 1014.0
20260508002359 56 208 0.0 1.0 0.00 0.00 0.00 45 1014.0
20260508002201 56 208 0.0 1.0 0.00 0.00 0.00 45 1014.0
20260508002059 56 208 0.0 1.0 0.00 0.00 0.00 46 1014.0
20260508002000 56 208 0.0 1.0 0.00 0.00 0.00 44 1014.0
20260508001900 56 208 0.0 1.0 0.00 0.00 0.00 45 1013.9
20260508001700 56 208 0.0 1.0 0.00 0.00 0.00 45 1014.0
20260508001601 56 208 0.0 1.0 0.00 0.00 0.00 46 1013.9
20260508001500 56 208 0.0 1.0 0.00 0.00 0.00 46 1013.9
20260508001400 56 208 0.0 1.0 0.00 0.00 0.00 45 1013.9
20260508001300 57 208 0.0 1.0 0.00 0.00 0.00 45 1013.9
20260508001201 57 208 0.0 1.0 0.00 0.00 0.00 45 1013.9
20260508001101 57 208 0.0 1.0 0.00 0.00 0.00 45 1013.9
20260508001002 57 208 0.0 1.0 0.00 0.00 0.00 44 1013.8
20260508000859 57 208 0.0 2.0 0.00 0.00 0.00 44 1013.9
20260508000800 57 208 0.0 2.0 0.00 0.00 0.00 44 1013.9
20260508000659 57 208 0.0 2.0 0.00 0.00 0.00 44 1013.9
20260508000600 57 205 0.0 2.0 0.00 0.00 0.00 44 1013.9
20260508000500 57 205 0.0 2.0 0.00 0.00 0.00 45 1013.9
20260508000401 57 205 1.0 2.0 0.00 0.00 0.00 43 1013.9
20260508000302 57 205 0.0 2.0 0.00 0.00 0.00 43 1013.9
20260508000159 57 205 0.0 2.0 0.00 0.00 0.00 42 1013.9
20260508000000 57 207 0.0 2.0 0.00 0.00 0.00 42 1013.9
20260507235800 57 198 0.0 2.0 0.00 0.00 0.00 41 1013.9
20260507235600 58 209 0.0 4.0 0.00 0.00 0.00 41 1013.8
20260507235500 58 209 1.0 4.0 0.00 0.00 0.00 41 1013.9
20260507235400 58 212 1.0 4.0 0.00 0.00 0.00 41 1013.8
20260507235201 58 207 1.0 4.0 0.00 0.00 0.00 43 1013.8
20260507235101 58 207 0.0 4.0 0.00 0.00 0.00 42 1013.9
20260507235001 58 207 0.0 4.0 0.00 0.00 0.00 41 1013.8
20260507234901 58 207 0.0 4.0 0.00 0.00 0.00 40 1013.9
20260507234700 58 313 3.0 3.0 0.00 0.00 0.00 40 1013.8
20260507234601 58 195 1.0 3.0 0.00 0.00 0.00 40 1013.8
20260507234500 58 250 1.0 3.0 0.00 0.00 0.00 42 1013.8
20260507234259 58 274 0.0 3.0 0.00 0.00 0.00 40 1013.7
20260507234200 59 286 0.0 3.0 0.00 0.00 0.00 40 1013.7
20260507234059 59 190 0.0 3.0 0.00 0.00 0.00 39 1013.8
20260507234000 59 267 0.0 3.0 0.00 0.00 0.00 40 1013.7
20260507233900 59 212 0.0 3.0 0.00 0.00 0.00 39 1013.7
20260507233801 59 205 1.0 3.0 0.00 0.00 0.00 38 1013.7
20260507233701 59 305 0.0 3.0 0.00 0.00 0.00 39 1013.7
20260507233459 59 257 2.0 3.0 0.00 0.00 0.00 41 1013.7
20260507233400 59 255 0.0 0.0 0.00 0.00 0.00 41 1013.6
20260507233300 59 5 0.0 0.0 0.00 0.00 0.00 42 1013.6
20260507233203 59 5 0.0 0.0 0.00 0.00 0.00 41 1013.5
20260507233100 59 5 0.0 0.0 0.00 0.00 0.00 42 1013.6
20260507232901 59 309 0.0 0.0 0.00 0.00 0.00 40 1013.7
20260507232703 59 23 0.0 0.0 0.00 0.00 0.00 40 1013.6
20260507232601 60 17 0.0 1.0 0.00 0.00 0.00 39 1013.6
20260507232500 60 17 0.0 1.0 0.00 0.00 0.00 40 1013.6
20260507232359 60 146 0.0 2.0 0.00 0.00 0.00 40 1013.6
20260507232201 60 153 0.0 2.0 0.00 0.00 0.00 40 1013.6
20260507232101 60 324 0.0 2.0 0.00 0.00 0.00 40 1013.6
20260507232002 60 324 0.0 3.0 0.00 0.00 0.00 40 1013.7
20260507231902 60 324 0.0 6.0 0.00 0.00 0.00 40 1013.6
20260507231759 60 324 0.0 6.0 0.00 0.00 0.00 39 1013.6
20260507231559 60 68 0.0 6.0 0.00 0.00 0.00 40 1013.6
20260507231400 60 71 0.0 6.0 0.00 0.00 0.00 39 1013.6
20260507231301 61 71 0.0 6.0 0.00 0.00 0.00 38 1013.7
20260507231200 61 22 1.0 6.0 0.00 0.00 0.00 38 1013.6
20260507231101 61 202 3.0 6.0 0.00 0.00 0.00 39 1013.6
20260507231000 61 211 0.0 2.0 0.00 0.00 0.00 38 1013.6
20260507230901 61 273 1.0 2.0 0.00 0.00 0.00 38 1013.6
20260507230700 61 147 0.0 2.0 0.00 0.00 0.00 39 1013.6
20260507230601 61 268 0.0 2.0 0.00 0.00 0.00 38 1013.6
20260507230500 61 260 2.0 2.0 0.00 0.00 0.00 37 1013.6
20260507230359 61 219 0.0 2.0 0.00 0.00 0.00 37 1013.7
20260507230300 61 263 0.0 2.0 0.00 0.00 0.00 36 1013.6
20260507230200 61 274 0.0 2.0 0.00 0.00 0.00 37 1013.7
20260507230000 61 68 0.0 2.0 0.00 0.00 0.00 37 1013.7
20260507225902 61 61 0.0 2.0 0.00 0.00 0.00 36 1013.7
20260507225802 61 61 0.0 2.0 0.00 0.00 0.00 38 1013.7
20260507225701 61 62 0.0 2.0 0.00 0.00 0.00 36 1013.6
20260507225500 61 61 0.0 2.0 0.00 0.00 0.00 38 1013.6
20260507225402 61 63 0.0 2.0 0.00 0.00 0.00 38 1013.7
20260507225300 61 86 0.0 2.0 0.00 0.00 0.00 39 1013.6
20260507225201 61 147 1.0 2.0 0.00 0.00 0.00 38 1013.7
20260507225100 61 151 0.0 2.0 0.00 0.00 0.00 37 1013.7
20260507225000 60 151 0.0 7.0 0.00 0.00 0.00 37 1013.6
20260507224859 60 152 0.0 7.0 0.00 0.00 0.00 36 1013.6
20260507224701 60 157 0.0 7.0 0.00 0.00 0.00 36 1013.6
20260507224600 60 127 2.0 7.0 0.00 0.00 0.00 36 1013.6
20260507224401 60 276 0.0 7.0 0.00 0.00 0.00 37 1013.7
20260507224301 60 276 0.0 7.0 0.00 0.00 0.00 39 1013.7
20260507224200 60 225 1.0 7.0 0.00 0.00 0.00 38 1013.7
20260507224101 60 177 0.0 4.0 0.00 0.00 0.00 38 1013.7
20260507223900 60 236 0.0 4.0 0.00 0.00 0.00 37 1013.8
20260507223801 60 186 0.0 4.0 0.00 0.00 0.00 38 1013.7
20260507223700 60 149 0.0 4.0 0.00 0.00 0.00 39 1013.7
20260507223600 60 273 4.0 4.0 0.00 0.00 0.00 39 1013.7
20260507223500 60 186 1.0 4.0 0.00 0.00 0.00 39 1013.7
20260507223401 61 200 0.0 4.0 0.00 0.00 0.00 38 1013.7
20260507223300 61 190 2.0 4.0 0.00 0.00 0.00 38 1013.7
20260507223200 61 236 0.0 3.0 0.00 0.00 0.00 38 1013.7
20260507223102 61 239 1.0 3.0 0.00 0.00 0.00 38 1013.7
20260507223001 61 245 1.0 3.0 0.00 0.00 0.00 38 1013.7
20260507222900 62 285 0.0 3.0 0.00 0.00 0.00 38 1013.7
20260507222800 62 244 0.0 0.0 0.00 0.00 0.00 39 1013.7
20260507222659 62 236 0.0 4.0 0.00 0.00 0.00 39 1013.7
20260507222600 62 236 0.0 4.0 0.00 0.00 0.00 37 1013.6
20260507222500 62 241 0.0 4.0 0.00 0.00 0.00 37 1013.7
20260507222401 62 234 0.0 4.0 0.00 0.00 0.00 37 1013.7
20260507222300 62 331 0.0 4.0 0.00 0.00 0.00 38 1013.7
20260507222000 62 17 0.0 4.0 0.00 0.00 0.00 37 1013.6
20260507221900 62 17 0.0 4.0 0.00 0.00 0.00 36 1013.7
20260507221702 62 345 0.0 0.0 0.00 0.00 0.00 39 1013.7
20260507221559 62 343 0.0 0.0 0.00 0.00 0.00 40 1013.6
20260507221500 62 336 0.0 0.0 0.00 0.00 0.00 37 1013.6
20260507221300 61 330 0.0 0.0 0.00 0.00 0.00 37 1013.6
20260507221201 61 330 0.0 0.0 0.00 0.00 0.00 38 1013.6
20260507221101 61 329 0.0 0.0 0.00 0.00 0.00 40 1013.6
20260507220959 61 276 0.0 2.0 0.00 0.00 0.00 36 1013.5
20260507220900 61 277 0.0 2.0 0.00 0.00 0.00 39 1013.5
20260507220801 61 277 0.0 2.0 0.00 0.00 0.00 38 1013.6
20260507220700 61 243 0.0 2.0 0.00 0.00 0.00 38 1013.6
20260507220600 61 238 0.0 5.0 0.00 0.00 0.00 36 1013.7
20260507220502 61 238 0.0 6.0 0.00 0.00 0.00 38 1013.7
20260507220400 61 206 0.0 6.0 0.00 0.00 0.00 41 1013.6
20260507220302 61 22 0.0 6.0 0.00 0.00 0.00 40 1013.6
20260507220200 61 30 0.0 6.0 0.00 0.00 0.00 37 1013.7
20260507220059 61 27 2.0 8.0 0.00 0.00 0.00 37 1013.7
20260507220001 60 348 0.0 8.0 0.00 0.00 0.00 40 1013.8
20260507215900 60 355 0.0 8.0 0.00 0.00 0.00 39 1013.8
20260507215800 60 336 2.0 8.0 0.00 0.00 0.00 38 1013.8
20260507215600 61 13 7.0 8.0 0.00 0.00 0.00 38 1013.8
20260507215500 61 18 2.0 8.0 0.00 0.00 0.00 38 1013.8
20260507215400 61 22 3.0 8.0 0.00 0.00 0.00 38 1013.8
20260507215301 61 12 7.0 8.0 0.00 0.00 0.00 38 1013.8
20260507215202 61 360 2.0 5.0 0.00 0.00 0.00 38 1013.8
20260507214959 61 309 3.0 5.0 0.00 0.00 0.00 38 1013.8
20260507214901 61 340 0.0 5.0 0.00 0.00 0.00 40 1013.9
20260507214800 61 332 3.0 5.0 0.00 0.00 0.00 40 1013.8
20260507214600 61 360 3.0 5.0 0.00 0.00 0.00 39 1013.8
20260507214459 61 5 0.0 5.0 0.00 0.00 0.00 39 1013.8
20260507214401 61 5 1.0 5.0 0.00 0.00 0.00 39 1013.8
20260507214300 61 360 0.0 5.0 0.00 0.00 0.00 40 1013.9
20260507214200 61 9 1.0 5.0 0.00 0.00 0.00 40 1013.9
20260507214101 61 30 2.0 5.0 0.00 0.00 0.00 40 1013.8
20260507213900 62 186 2.0 5.0 0.00 0.00 0.00 36 1013.8
20260507213700 62 194 3.0 6.0 0.00 0.00 0.00 35 1013.8
20260507213600 63 261 0.0 6.0 0.00 0.00 0.00 35 1013.9
20260507213500 63 325 0.0 6.0 0.00 0.00 0.00 37 1013.9
20260507213401 63 334 2.0 6.0 0.00 0.00 0.00 35 1013.8
20260507213301 63 355 2.0 6.0 0.00 0.00 0.00 37 1013.9
20260507213200 63 225 1.0 6.0 0.00 0.00 0.00 39 1013.9
20260507213101 63 298 2.0 6.0 0.00 0.00 0.00 40 1013.9
20260507213000 63 336 1.0 6.0 0.00 0.00 0.00 39 1013.9
20260507212759 63 311 5.0 6.0 0.00 0.00 0.00 39 1013.8
20260507212703 63 9 1.0 5.0 0.00 0.00 0.00 43 1013.8
20260507212600 63 43 1.0 5.0 0.00 0.00 0.00 37 1013.7
20260507212500 63 237 2.0 5.0 0.00 0.00 0.00 38 1013.8
20260507212402 63 355 3.0 5.0 0.00 0.00 0.00 37 1013.8
20260507212101 63 5 3.0 3.0 0.00 0.00 0.00 35 1013.8
20260507211901 63 336 0.0 2.0 0.00 0.00 0.00 36 1013.8
20260507211759 63 125 0.0 4.0 0.00 0.00 0.00 36 1013.7
20260507211700 63 148 0.0 4.0 0.00 0.00 0.00 39 1013.7
20260507211459 63 196 0.0 4.0 0.00 0.00 0.00 36 1013.8
20260507211400 63 173 0.0 6.0 0.00 0.00 0.00 39 1013.7
20260507211300 63 284 0.0 6.0 0.00 0.00 0.00 40 1013.8
20260507211200 63 22 0.0 6.0 0.00 0.00 0.00 40 1013.8
20260507211002 63 336 2.0 6.0 0.00 0.00 0.00 38 1013.8
20260507210900 63 5 1.0 6.0 0.00 0.00 0.00 40 1013.8
20260507210801 63 355 3.0 6.0 0.00 0.00 0.00 40 1013.7
20260507210700 63 17 0.0 6.0 0.00 0.00 0.00 39 1013.8
20260507210601 63 19 1.0 6.0 0.00 0.00 0.00 36 1013.8
20260507210501 63 355 5.0 6.0 0.00 0.00 0.00 35 1013.8
20260507210400 63 313 1.0 6.0 0.00 0.00 0.00 35 1013.7
20260507210100 63 75 7.0 7.0 0.00 0.00 0.00 39 1013.7
20260507205900 63 340 3.0 5.0 0.00 0.00 0.00 39 1013.7
20260507205800 63 329 2.0 5.0 0.00 0.00 0.00 39 1013.7
20260507205659 63 111 1.0 5.0 0.00 0.00 0.00 37 1013.7
20260507205600 63 190 1.0 9.0 0.00 0.00 0.00 36 1013.6
20260507205501 63 189 2.0 9.0 0.00 0.00 0.00 36 1013.7
20260507205300 64 293 1.0 9.0 0.00 0.00 0.00 37 1013.7
20260507205201 64 71 1.0 9.0 0.00 0.00 0.00 39 1013.7
20260507205100 63 15 2.0 9.0 0.00 0.00 0.00 37 1013.6
20260507204900 64 322 4.0 9.0 0.00 0.00 0.00 39 1013.6
20260507204601 64 346 3.0 9.0 0.00 0.00 0.00 37 1013.6
20260507204401 63 360 0.0 9.0 0.00 0.00 0.00 41 1013.7
20260507204300 63 340 1.0 9.0 0.00 0.00 0.00 40 1013.7
20260507204201 63 355 1.0 9.0 0.00 0.00 0.00 41 1013.6
20260507204000 63 355 1.0 4.0 0.00 0.00 0.00 43 1013.7
20260507203901 63 338 2.0 4.0 0.00 0.00 0.00 42 1013.6
20260507203801 63 125 0.0 4.0 0.00 0.00 0.00 38 1013.6
20260507203700 63 82 0.0 4.0 0.00 0.00 0.00 37 1013.6
20260507203601 63 83 0.0 4.0 0.00 0.00 0.00 37 1013.6
20260507203501 63 117 0.0 4.0 0.00 0.00 0.00 35 1013.6
20260507203400 63 117 0.0 4.0 0.00 0.00 0.00 37 1013.6
20260507203301 63 120 0.0 5.0 0.00 0.00 0.00 36 1013.6
20260507203200 63 120 1.0 5.0 0.00 0.00 0.00 35 1013.7
20260507203100 63 32 1.0 6.0 0.00 0.00 0.00 38 1013.7
20260507202900 63 319 1.0 9.0 0.00 0.00 0.00 39 1013.7
20260507202801 63 346 3.0 9.0 0.00 0.00 0.00 43 1013.7
20260507202701 62 338 1.0 9.0 0.00 0.00 0.00 41 1013.6
20260507202600 62 333 2.0 9.0 0.00 0.00 0.00 40 1013.8
20260507202500 63 326 1.0 9.0 0.00 0.00 0.00 40 1013.7
20260507202402 63 350 0.0 9.0 0.00 0.00 0.00 38 1013.7
20260507202200 63 17 8.0 9.0 0.00 0.00 0.00 39 1013.7
20260507202101 63 349 3.0 8.0 0.00 0.00 0.00 39 1013.7
20260507202001 63 340 2.0 8.0 0.00 0.00 0.00 37 1013.8
20260507201900 63 292 1.0 8.0 0.00 0.00 0.00 40 1013.7
20260507201759 63 332 1.0 8.0 0.00 0.00 0.00 40 1013.8
20260507201700 63 336 1.0 8.0 0.00 0.00 0.00 40 1013.8
20260507201600 63 9 4.0 8.0 0.00 0.00 0.00 40 1013.8
20260507201500 63 355 3.0 12.0 0.00 0.00 0.00 40 1013.8
20260507201400 63 317 4.0 12.0 0.00 0.00 0.00 36 1013.7
20260507201301 63 10 5.0 12.0 0.00 0.00 0.00 38 1013.8
20260507201100 63 351 1.0 12.0 0.00 0.00 0.00 39 1013.9
20260507201000 63 73 1.0 12.0 0.00 0.00 0.00 37 1013.9
20260507200901 63 9 1.0 12.0 0.00 0.00 0.00 39 1013.9
20260507200800 63 345 1.0 12.0 0.00 0.00 0.00 39 1014.0
20260507200601 63 5 3.0 9.0 0.00 0.00 0.00 40 1014.1
20260507200504 63 11 4.0 8.0 0.00 0.00 0.00 38 1014.0
20260507200403 63 342 1.0 8.0 0.00 0.00 0.00 39 1014.0
20260507200300 63 340 3.0 8.0 0.00 0.00 0.00 43 1014.0
20260507200000 63 338 1.0 8.0 0.00 0.00 0.00 42 1014.0
20260507195900 63 343 2.0 11.0 0.00 0.00 0.00 39 1013.9
20260507195801 63 355 3.0 11.0 0.00 0.00 0.00 38 1014.0
20260507195701 63 327 0.0 11.0 0.00 0.00 0.00 42 1014.0
20260507195600 63 327 2.0 11.0 0.00 0.00 0.00 40 1014.0
20260507195459 63 5 4.0 11.0 0.00 0.00 0.00 40 1014.0
20260507195402 63 355 4.0 11.0 0.00 0.00 0.00 41 1014.0
20260507195300 63 355 2.0 11.0 0.00 0.00 0.00 39 1013.9
20260507195159 63 343 4.0 11.0 0.00 0.00 0.00 40 1014.0
20260507195101 63 21 4.0 11.0 0.00 0.00 0.00 39 1013.9
20260507195000 63 23 5.0 9.0 0.00 0.00 0.00 41 1013.9
20260507194901 62 347 2.0 8.0 0.00 0.00 0.00 40 1013.9
20260507194802 62 319 1.0 8.0 0.00 0.00 0.00 41 1014.0
20260507194701 62 334 4.0 8.0 0.00 0.00 0.00 40 1014.0
20260507194600 62 350 0.0 8.0 0.00 0.00 0.00 43 1014.1
20260507194500 62 339 2.0 8.0 0.00 0.00 0.00 39 1014.1
20260507194401 62 351 5.0 8.0 0.00 0.00 0.00 41 1014.1
20260507194200 62 347 2.0 8.0 0.00 0.00 0.00 40 1014.0
20260507194000 62 319 1.0 8.0 0.00 0.00 0.00 41 1014.1
20260507193801 62 344 3.0 10.0 0.00 0.00 0.00 40 1014.2
20260507193700 62 360 1.0 10.0 0.00 0.00 0.00 40 1014.1
20260507193600 62 27 5.0 10.0 0.00 0.00 0.00 39 1014.1
20260507193500 62 32 3.0 10.0 0.00 0.00 0.00 37 1014.2
20260507193401 62 355 2.0 10.0 0.00 0.00 0.00 40 1014.2
20260507193202 62 349 2.0 10.0 0.00 0.00 0.00 39 1014.2
20260507193100 62 324 1.0 10.0 0.00 0.00 0.00 40 1014.2
20260507193000 62 20 2.0 12.0 0.00 0.00 0.00 38 1014.2
20260507192800 62 59 4.0 12.0 0.00 0.00 0.00 38 1014.3
20260507192700 62 39 4.0 12.0 0.00 0.00 0.00 42 1014.2
20260507192601 61 330 2.0 12.0 0.00 0.00 0.00 41 1014.1
20260507192502 61 349 5.0 12.0 0.00 0.00 0.00 42 1014.2
20260507192403 61 331 3.0 12.0 0.00 0.00 0.00 39 1014.2
20260507192201 61 5 3.0 12.0 0.00 0.00 0.00 37 1014.2
20260507192100 62 317 4.0 9.0 0.00 0.00 0.00 38 1014.2
20260507192001 62 360 4.0 9.0 0.00 0.00 0.00 40 1014.3
20260507191900 62 15 5.0 9.0 0.00 0.00 0.00 39 1014.2
20260507191801 62 11 8.0 9.0 0.00 0.00 0.00 42 1014.2
20260507191701 62 350 2.0 9.0 0.00 0.00 0.00 43 1014.3
20260507191600 62 293 7.0 9.0 0.00 0.00 0.00 43 1014.2
20260507191501 62 337 1.0 9.0 0.00 0.00 0.00 39 1014.2
20260507191400 62 184 1.0 9.0 0.00 0.00 0.00 42 1014.3
20260507191301 62 355 2.0 9.0 0.00 0.00 0.00 42 1014.2
20260507191200 62 151 3.0 9.0 0.00 0.00 0.00 37 1014.3
20260507191000 62 355 5.0 8.0 0.00 0.00 0.00 39 1014.3
20260507190901 62 43 0.0 8.0 0.00 0.00 0.00 40 1014.3
20260507190801 62 333 2.0 8.0 0.00 0.00 0.00 38 1014.3
20260507190500 62 215 2.0 10.0 0.00 0.00 0.00 39 1014.3
20260507190301 62 13 5.0 10.0 0.00 0.00 0.00 44 1014.3
20260507190201 62 340 1.0 10.0 0.00 0.00 0.00 41 1014.3
20260507190004 62 336 1.0 10.0 0.00 0.00 0.00 40 1014.3
20260507185901 62 24 5.0 10.0 0.00 0.00 0.00 41 1014.3
20260507185800 62 332 2.0 8.0 0.00 0.00 0.00 40 1014.3
20260507185700 62 29 3.0 8.0 0.00 0.00 0.00 37 1014.2
20260507185600 62 293 2.0 8.0 0.00 0.00 0.00 42 1014.3
20260507185500 62 349 8.0 8.0 0.00 0.00 0.00 45 1014.3
20260507185400 62 345 2.0 5.0 0.00 0.00 0.00 42 1014.3
20260507185300 62 288 2.0 5.0 0.00 0.00 0.00 42 1014.2
20260507185100 62 360 2.0 5.0 0.00 0.00 0.00 42 1014.2
20260507185000 62 355 0.0 5.0 0.00 0.00 0.00 42 1014.2
20260507184900 62 348 5.0 5.0 0.00 0.00 0.00 42 1014.2
20260507184802 62 5 1.0 4.0 0.00 0.00 0.00 41 1014.2
20260507184701 62 355 1.0 4.0 0.00 0.00 0.00 41 1014.3
20260507184501 62 190 3.0 4.0 0.00 0.00 0.00 40 1014.3
20260507184402 62 67 1.0 5.0 0.00 0.00 0.00 41 1014.2
20260507184300 62 182 2.0 8.0 0.00 0.00 0.00 38 1014.2
20260507184059 62 146 1.0 8.0 0.00 0.00 0.00 41 1014.2
20260507183900 62 306 1.0 8.0 0.00 0.00 0.00 42 1014.1
20260507183803 62 192 1.0 8.0 0.00 0.00 0.00 43 1014.1
20260507183701 62 315 1.0 8.0 0.00 0.00 0.00 40 1014.3
20260507183501 62 360 6.0 8.0 0.00 0.00 0.00 41 1014.3
20260507183400 62 335 3.0 8.0 0.00 0.00 0.00 41 1014.2
20260507183300 62 5 3.0 5.0 0.00 0.00 0.00 42 1014.2
20260507183101 62 17 5.0 9.0 0.00 0.00 0.00 40 1014.2
20260507183001 62 325 2.0 9.0 0.00 0.00 0.00 43 1014.2
20260507182902 62 348 2.0 9.0 0.00 0.00 0.00 42 1014.3
20260507182701 62 298 1.0 9.0 0.00 0.00 0.00 42 1014.3
20260507182601 62 336 2.0 11.0 0.00 0.00 0.00 43 1014.3
20260507182501 62 22 1.0 11.0 0.00 0.00 0.00 41 1014.3
20260507182400 62 262 1.0 11.0 0.00 0.00 0.00 41 1014.4
20260507182300 62 350 5.0 11.0 0.00 0.00 0.00 44 1014.4
20260507182159 62 355 3.0 11.0 0.00 0.00 0.00 44 1014.4
20260507182102 61 351 3.0 11.0 0.00 0.00 0.00 44 1014.4
20260507181900 61 76 1.0 11.0 0.00 0.00 0.00 41 1014.3
20260507181800 61 271 1.0 11.0 0.00 0.00 0.00 41 1014.3
20260507181700 62 39 4.0 9.0 0.00 0.00 0.00 44 1014.4
20260507181601 61 40 2.0 9.0 0.00 0.00 0.00 41 1014.4
20260507181401 62 28 4.0 9.0 0.00 0.00 0.00 43 1014.3
20260507181300 62 306 3.0 9.0 0.00 0.00 0.00 43 1014.3
20260507181104 62 221 1.0 9.0 0.00 0.00 0.00 42 1014.4
20260507181003 62 334 4.0 9.0 0.00 0.00 0.00 43 1014.4
20260507180901 61 330 3.0 6.0 0.00 0.00 0.00 43 1014.4
20260507180800 61 343 2.0 7.0 0.00 0.00 0.00 44 1014.3
20260507180559 61 24 3.0 6.0 0.00 0.00 0.00 40 1014.2
20260507180500 61 351 2.0 6.0 0.00 0.00 0.00 43 1014.3
20260507180301 61 5 4.0 6.0 0.00 0.00 0.00 42 1014.3
20260507180159 61 336 1.0 4.0 0.00 0.00 0.00 40 1014.3
20260507180002 61 340 1.0 4.0 0.00 0.00 0.00 40 1014.3
20260507175802 61 355 1.0 4.0 0.00 0.00 0.00 42 1014.4
20260507175601 61 355 1.0 4.0 0.00 0.00 0.00 41 1014.4
20260507175501 61 259 3.0 4.0 0.00 0.00 0.00 39 1014.4
20260507175300 61 315 4.0 8.0 0.00 0.00 0.00 40 1014.4
20260507175202 61 159 2.0 8.0 0.00 0.00 0.00 43 1014.5
20260507175100 61 320 0.0 8.0 0.00 0.00 0.00 42 1014.6
20260507174801 61 176 3.0 8.0 0.00 0.00 0.00 41 1014.6
20260507174601 61 349 0.0 8.0 0.00 0.00 0.00 43 1014.7
20260507174502 61 344 2.0 6.0 0.00 0.00 0.00 43 1014.6
20260507174400 61 348 2.0 6.0 0.00 0.00 0.00 43 1014.7
20260507174200 61 194 3.0 6.0 0.00 0.00 0.00 43 1014.6
20260507174000 61 242 0.0 6.0 0.00 0.00 0.00 41 1014.6
20260507173800 61 338 3.0 6.0 0.00 0.00 0.00 43 1014.7
20260507173700 61 167 3.0 8.0 0.00 0.00 0.00 44 1014.7
20260507173601 61 11 2.0 8.0 0.00 0.00 0.00 43 1014.7
20260507173500 61 360 3.0 8.0 0.00 0.00 0.00 45 1014.6
20260507173400 60 9 4.0 8.0 0.00 0.00 0.00 45 1014.7
20260507173300 60 344 5.0 8.0 0.00 0.00 0.00 43 1014.7
20260507173200 60 323 3.0 8.0 0.00 0.00 0.00 42 1014.7
20260507173100 60 15 4.0 8.0 0.00 0.00 0.00 42 1014.8
20260507173002 60 15 1.0 8.0 0.00 0.00 0.00 43 1014.7
20260507172859 60 5 5.0 8.0 0.00 0.00 0.00 42 1014.8
20260507172801 60 360 6.0 6.0 0.00 0.00 0.00 42 1014.8
20260507172700 60 19 4.0 6.0 0.00 0.00 0.00 41 1014.7
20260507172600 60 32 1.0 6.0 0.00 0.00 0.00 42 1014.8
20260507172459 60 331 1.0 6.0 0.00 0.00 0.00 44 1014.8
20260507172401 60 342 1.0 6.0 0.00 0.00 0.00 43 1014.8
20260507172300 60 9 0.0 10.0 0.00 0.00 0.00 42 1014.9
20260507172159 60 49 1.0 10.0 0.00 0.00 0.00 43 1014.9
20260507172100 60 271 1.0 10.0 0.00 0.00 0.00 48 1014.8
20260507171959 59 314 3.0 10.0 0.00 0.00 0.00 44 1014.9
20260507171900 59 337 2.0 10.0 0.00 0.00 0.00 40 1014.9
20260507171801 60 344 2.0 10.0 0.00 0.00 0.00 40 1014.9
20260507171702 60 116 0.0 10.0 0.00 0.00 0.00 41 1014.9
20260507171600 60 136 2.0 10.0 0.00 0.00 0.00 40 1014.9
20260507171501 60 49 2.0 10.0 0.00 0.00 0.00 40 1015.0
20260507171400 60 284 0.0 8.0 0.00 0.00 0.00 43 1015.0
20260507171302 60 178 0.0 8.0 0.00 0.00 0.00 42 1015.0
20260507171201 60 262 2.0 5.0 0.00 0.00 0.00 42 1015.0
20260507171059 60 32 1.0 5.0 0.00 0.00 0.00 42 1015.0
20260507170900 60 342 0.0 5.0 0.00 0.00 0.00 44 1015.0
20260507170602 60 315 1.0 5.0 0.00 0.00 0.00 43 1015.0
20260507170500 60 87 2.0 5.0 0.00 0.00 0.00 44 1015.0
20260507170359 60 34 1.0 5.0 0.00 0.00 0.00 44 1015.0
20260507170300 60 145 1.0 4.0 0.00 0.00 0.00 42 1015.0
20260507170200 60 158 1.0 5.0 0.00 0.00 0.00 41 1015.1
20260507165959 60 329 1.0 5.0 0.00 0.00 0.00 44 1015.0
20260507165800 60 11 0.0 5.0 0.00 0.00 0.00 42 1015.2
20260507165700 60 5 0.0 5.0 0.00 0.00 0.00 42 1015.2
20260507165502 60 355 2.0 10.0 0.00 0.00 0.00 45 1015.2
20260507165401 60 291 3.0 10.0 0.00 0.00 0.00 45 1015.2
20260507165300 60 24 0.0 10.0 0.00 0.00 0.00 44 1015.2
20260507165200 60 157 2.0 10.0 0.00 0.00 0.00 45 1015.2
20260507165100 60 11 1.0 10.0 0.00 0.00 0.00 45 1015.2
20260507165000 60 348 3.0 10.0 0.00 0.00 0.00 44 1015.1
20260507164800 59 342 0.0 10.0 0.00 0.00 0.00 43 1015.2
20260507164700 59 340 2.0 10.0 0.00 0.00 0.00 43 1015.1
20260507164501 59 15 2.0 8.0 0.00 0.00 0.00 46 1015.2
20260507164401 59 327 1.0 8.0 0.00 0.00 0.00 46 1015.0
20260507164301 59 12 0.0 9.0 0.00 0.00 0.00 45 1015.1
20260507164200 59 5 1.0 9.0 0.00 0.00 0.00 46 1015.2
20260507164102 59 355 1.0 9.0 0.00 0.00 0.00 44 1015.2
20260507163959 59 340 3.0 9.0 0.00 0.00 0.00 44 1015.2
20260507163901 59 41 1.0 10.0 0.00 0.00 0.00 44 1015.2
20260507163800 59 305 1.0 10.0 0.00 0.00 0.00 43 1015.3
20260507163700 59 15 4.0 10.0 0.00 0.00 0.00 45 1015.4
20260507163601 59 324 1.0 10.0 0.00 0.00 0.00 47 1015.4
20260507163501 59 332 3.0 10.0 0.00 0.00 0.00 43 1015.3
20260507163400 59 355 3.0 10.0 0.00 0.00 0.00 44 1015.3
20260507163300 59 9 4.0 10.0 0.00 0.00 0.00 48 1015.4
20260507163100 59 351 2.0 10.0 0.00 0.00 0.00 45 1015.3
20260507163001 59 69 2.0 5.0 0.00 0.00 0.00 45 1015.2
20260507162900 59 49 1.0 5.0 0.00 0.00 0.00 44 1015.2
20260507162800 59 162 2.0 5.0 0.00 0.00 0.00 43 1015.3
20260507162700 59 196 2.0 5.0 0.00 0.00 0.00 44 1015.3
20260507162559 59 350 0.0 5.0 0.00 0.00 0.00 45 1015.4
20260507162500 58 344 0.0 5.0 0.00 0.00 0.00 46 1015.3
20260507162359 58 331 4.0 5.0 0.00 0.00 0.00 45 1015.3
20260507162259 58 278 2.0 5.0 0.00 0.00 0.00 43 1015.3
20260507162059 58 343 3.0 5.0 0.00 0.00 0.00 47 1015.3
20260507162000 58 343 2.0 5.0 0.00 0.00 0.00 47 1015.4
20260507161859 58 32 1.0 5.0 0.00 0.00 0.00 46 1015.4
20260507161800 58 154 2.0 5.0 0.00 0.00 0.00 45 1015.3
20260507161659 58 277 0.0 5.0 0.00 0.00 0.00 43 1015.2
20260507161601 58 276 0.0 5.0 0.00 0.00 0.00 45 1015.4
20260507161459 58 345 0.0 5.0 0.00 0.00 0.00 46 1015.3
20260507161358 58 335 0.0 5.0 0.00 0.00 0.00 47 1015.3
20260507161259 58 346 2.0 5.0 0.00 0.00 0.00 44 1015.3
20260507161100 58 245 2.0 5.0 0.00 0.00 0.00 45 1015.3
20260507160959 58 336 0.0 11.0 0.00 0.00 0.00 45 1015.3
20260507160802 58 129 1.0 11.0 0.00 0.00 0.00 47 1015.3
20260507160701 58 319 1.0 11.0 0.00 0.00 0.00 44 1015.4
20260507160558 58 340 3.0 11.0 0.00 0.00 0.00 44 1015.4
20260507160500 58 347 2.0 11.0 0.00 0.00 0.00 44 1015.5
20260507160159 58 5 5.0 11.0 0.00 0.00 0.00 44 1015.5
20260507160058 58 355 5.0 11.0 0.00 0.00 0.00 45 1015.4
20260507160004 57 350 0.0 5.0 0.00 0.00 0.00 44 1015.4
20260507155901 58 342 0.0 5.0 0.00 0.00 0.00 45 1015.5
20260507155801 57 340 1.0 4.0 0.00 0.00 0.00 43 1015.5
20260507155700 57 189 3.0 4.0 0.00 0.00 0.00 45 1015.4
20260507155500 57 138 0.0 5.0 0.00 0.00 0.00 44 1015.4
20260507155402 57 190 3.0 5.0 0.00 0.00 0.00 44 1015.4
20260507155300 57 134 1.0 5.0 0.00 0.00 0.00 41 1015.4
20260507155100 57 355 0.0 5.0 0.00 0.00 0.00 42 1015.4
20260507155000 57 166 3.0 5.0 0.00 0.00 0.00 44 1015.4
20260507154800 57 342 1.0 5.0 0.00 0.00 0.00 44 1015.4
20260507154702 57 5 4.0 5.0 0.00 0.00 0.00 43 1015.3
20260507154500 57 289 2.0 5.0 0.00 0.00 0.00 44 1015.4
20260507154402 57 29 2.0 5.0 0.00 0.00 0.00 43 1015.4
20260507154301 57 22 0.0 8.0 0.00 0.00 0.00 44 1015.4
20260507154200 57 295 0.0 8.0 0.00 0.00 0.00 42 1015.5
20260507154100 57 153 2.0 8.0 0.00 0.00 0.00 44 1015.5
20260507154002 57 298 3.0 8.0 0.00 0.00 0.00 43 1015.5
20260507153700 57 253 0.0 11.0 0.00 0.00 0.00 44 1015.4
20260507153600 57 345 3.0 11.0 0.00 0.00 0.00 45 1015.4
20260507153501 57 333 8.0 11.0 0.00 0.00 0.00 46 1015.3
20260507153359 57 330 3.0 11.0 0.00 0.00 0.00 46 1015.3
20260507153259 57 333 2.0 11.0 0.00 0.00 0.00 46 1015.3
20260507153201 57 336 2.0 11.0 0.00 0.00 0.00 44 1015.3
20260507153100 57 27 3.0 13.0 0.00 0.00 0.00 43 1015.3
20260507152859 57 355 1.0 13.0 0.00 0.00 0.00 44 1015.3
20260507152800 57 5 1.0 13.0 0.00 0.00 0.00 45 1015.3
20260507152603 57 348 3.0 13.0 0.00 0.00 0.00 45 1015.3
20260507152502 57 355 3.0 13.0 0.00 0.00 0.00 44 1015.3
20260507152400 57 331 4.0 13.0 0.00 0.00 0.00 43 1015.2
20260507152305 57 9 0.0 13.0 0.00 0.00 0.00 44 1015.2
20260507152159 57 338 3.0 8.0 0.00 0.00 0.00 46 1015.2
20260507152101 57 323 3.0 8.0 0.00 0.00 0.00 43 1015.2
20260507151959 57 17 7.0 8.0 0.00 0.00 0.00 44 1015.2
20260507151900 57 355 3.0 8.0 0.00 0.00 0.00 48 1015.2
20260507151800 57 338 1.0 8.0 0.00 0.00 0.00 45 1015.1
20260507151601 57 24 4.0 7.0 0.00 0.00 0.00 44 1015.1
20260507151501 57 9 0.0 7.0 0.00 0.00 0.00 43 1015.2
20260507151400 57 44 2.0 7.0 0.00 0.00 0.00 41 1015.1
20260507151300 57 22 3.0 7.0 0.00 0.00 0.00 43 1015.1
20260507151200 57 342 0.0 7.0 0.00 0.00 0.00 44 1015.1
20260507151102 57 324 0.0 7.0 0.00 0.00 0.00 44 1015.1
20260507151001 57 169 0.0 7.0 0.00 0.00 0.00 46 1015.2
20260507150901 57 207 0.0 7.0 0.00 0.00 0.00 45 1015.1
20260507150701 56 140 2.0 5.0 0.00 0.00 0.00 48 1015.3
20260507150601 56 9 1.0 5.0 0.00 0.00 0.00 48 1015.2
20260507150500 56 336 3.0 5.0 0.00 0.00 0.00 44 1015.2
20260507150401 56 16 2.0 5.0 0.00 0.00 0.00 42 1015.2
20260507150301 56 138 2.0 5.0 0.00 0.00 0.00 43 1015.2
20260507150200 56 39 0.0 5.0 0.00 0.00 0.00 48 1015.2
20260507150100 56 350 0.0 5.0 0.00 0.00 0.00 46 1015.2
20260507150002 56 360 0.0 5.0 0.00 0.00 0.00 45 1015.2
20260507145900 56 5 0.0 5.0 0.00 0.00 0.00 45 1015.2
20260507145600 56 46 4.0 5.0 0.00 0.00 0.00 48 1015.2
20260507145400 56 166 0.0 4.0 0.00 0.00 0.00 44 1015.1
20260507145300 56 162 2.0 4.0 0.00 0.00 0.00 47 1015.2
20260507145200 56 340 2.0 4.0 0.00 0.00 0.00 49 1015.2
20260507145000 56 328 1.0 4.0 0.00 0.00 0.00 50 1015.2
20260507144901 55 346 2.0 3.0 0.00 0.00 0.00 48 1015.2
20260507144801 55 325 0.0 3.0 0.00 0.00 0.00 49 1015.1
20260507144701 55 323 1.0 3.0 0.00 0.00 0.00 49 1015.2
20260507144503 55 327 2.0 8.0 0.00 0.00 0.00 48 1015.1
20260507144402 55 236 1.0 8.0 0.00 0.00 0.00 47 1015.1
20260507144300 55 74 2.0 8.0 0.00 0.00 0.00 48 1015.2
20260507144201 55 314 1.0 8.0 0.00 0.00 0.00 49 1015.2
20260507144100 55 50 0.0 8.0 0.00 0.00 0.00 50 1015.2
20260507144002 55 46 2.0 8.0 0.00 0.00 0.00 49 1015.2
20260507143901 55 46 1.0 8.0 0.00 0.00 0.00 52 1015.2
20260507143801 55 27 3.0 8.0 0.00 0.00 0.00 51 1015.2
20260507143700 55 34 4.0 8.0 0.00 0.00 0.00 50 1015.2
20260507143600 55 346 2.0 3.0 0.00 0.00 0.00 52 1015.2
20260507143500 55 327 0.0 3.0 0.00 0.00 0.00 52 1015.2
20260507143403 55 335 3.0 3.0 0.00 0.00 0.00 52 1015.2
20260507143302 55 355 2.0 6.0 0.00 0.00 0.00 50 1015.2
20260507143201 54 180 1.0 6.0 0.00 0.00 0.00 50 1015.2
20260507143059 54 180 1.0 6.0 0.00 0.00 0.00 50 1015.2
20260507143000 54 179 1.0 6.0 0.00 0.00 0.00 51 1015.3
20260507142900 54 34 1.0 6.0 0.00 0.00 0.00 52 1015.3
20260507142801 54 5 0.0 6.0 0.00 0.00 0.00 52 1015.3
20260507142659 54 326 0.0 6.0 0.00 0.00 0.00 52 1015.3
20260507142601 54 317 1.0 6.0 0.00 0.00 0.00 53 1015.3
20260507142500 54 351 2.0 6.0 0.00 0.00 0.00 53 1015.3
20260507142359 54 344 5.0 6.0 0.00 0.00 0.00 52 1015.2
20260507142300 54 316 2.0 6.0 0.00 0.00 0.00 51 1015.2
20260507142200 54 348 3.0 6.0 0.00 0.00 0.00 51 1015.3
20260507142101 54 13 4.0 7.0 0.00 0.00 0.00 52 1015.3
20260507142002 54 19 0.0 6.0 0.00 0.00 0.00 52 1015.3
20260507141800 54 355 1.0 11.0 0.00 0.00 0.00 53 1015.3
20260507141659 54 351 1.0 11.0 0.00 0.00 0.00 52 1015.3
20260507141602 54 355 0.0 11.0 0.00 0.00 0.00 51 1015.3
20260507141500 54 355 4.0 11.0 0.00 0.00 0.00 49 1015.2
20260507141400 54 10 1.0 11.0 0.00 0.00 0.00 50 1015.3
20260507141300 54 355 2.0 11.0 0.00 0.00 0.00 50 1015.2
20260507141202 54 360 3.0 11.0 0.00 0.00 0.00 50 1015.3
20260507141100 54 13 7.0 11.0 0.00 0.00 0.00 49 1015.3
20260507141000 54 344 2.0 9.0 0.00 0.00 0.00 48 1015.3
20260507140859 54 355 3.0 9.0 0.00 0.00 0.00 48 1015.4
20260507140759 54 26 0.0 9.0 0.00 0.00 0.00 49 1015.5
20260507140701 54 9 4.0 9.0 0.00 0.00 0.00 48 1015.5
20260507140459 54 14 3.0 9.0 0.00 0.00 0.00 48 1015.5
20260507140359 54 319 1.0 9.0 0.00 0.00 0.00 49 1015.5
20260507140300 54 350 4.0 9.0 0.00 0.00 0.00 49 1015.5
20260507140200 54 328 4.0 5.0 0.00 0.00 0.00 48 1015.5
20260507140100 54 335 1.0 5.0 0.00 0.00 0.00 49 1015.5
20260507140000 54 321 0.0 5.0 0.00 0.00 0.00 50 1015.6
20260507135859 53 327 2.0 5.0 0.00 0.00 0.00 49 1015.5
20260507135759 53 35 0.0 5.0 0.00 0.00 0.00 50 1015.5